Temp
4 4 4 3 3 3 3 3 3 3 3 3 3 3 3 3 3 3 4 4 4 3 3 2 1 1 -0 -1 -1 -2 -2 -2 -1 -1 -1 -1 -1 -2 -2 -2 -2 -2 -2 -2 -2 -2 -2 -2 -2 -2 -2 -2 -2 -3 -3 -3 -3 -3 -3 -3 -3 -3 -3 -3 -2 -1 -1 -1 -1 -1 -1 -1 -0 -0 -0 0 0 0 -0 -0 0 0 0 0 0
4 4 4 3 3 3 3 3 3 3 3 3 3 3 3 3 3 3 3 4 3 3 3 2 1 1 -0 -1 -1 -2 -2 -2 -1 -1 -1 -1 -1 -1 -2 -2 -2 -2 -2 -2 -2 -2 -2 -2 -2 -2 -2 -2 -2 -3 -3 -3 -3 -3 -3 -3 -3 -3 -3 -2 -2 -2 -1 -1 -1 -1 -1 -1 -1 -1 -0 -0 -0 -0 -0 -0 -0 0 0 0 0
4 4 3 3 3 3 3 3 3 3 3 3 3 3 3 3 3 3 3 3 3 3 3 2 2 1 -0 -1 -2 -2 -2 -2 -1 -1 -1 -1 -1 -1 -2 -2 -2 -2 -2 -2 -2 -2 -2 -2 -2 -2 -3 -3 -3 -3 -3 -3 -3 -3 -3 -3 -3 -3 -2 -2 -2 -2 -1 -1 -1 -1 -1 -1 -1 -1 -1 -0 -0 -0 -1 -0 -0 -0 -0 -0 -0
4 4 3 3 3 3 3 3 3 3 3 3 3 3 3 3 3 3 3 3 3 3 3 2 2 1 -0 -1 -2 -2 -2 -2 -2 -1 -1 -1 -1 -1 -2 -2 -2 -2 -2 -2 -2 -2 -2 -2 -2 -3 -3 -3 -3 -4 -4 -4 -3 -3 -3 -3 -3 -3 -3 -3 -2 -2 -1 -1 -1 -1 -1 -1 -1 -1 -1 -1 -1 -1 -1 -1 -0 -0 -0 -0 0
4 4 3 3 3 3 3 3 3 3 3 3 3 3 3 2 2 3 3 3 3 3 3 2 2 1 0 -1 -1 -2 -2 -2 -2 -2 -1 -1 -2 -2 -2 -2 -2 -2 -2 -2 -2 -2 -2 -2 -2 -2 -3 -3 -3 -3 -3 -3 -3 -3 -3 -3 -3 -3 -3 -3 -2 -2 -2 -1 -1 -1 -1 -1 -1 -1 -1 -2 -2 -1 -1 -1 -1 -1 -0 -0 -0
4 3 3 3 3 3 3 3 3 3 3 3 2 2 2 2 2 2 3 3 3 3 3 3 2 1 1 -0 -1 -1 -2 -2 -2 -2 -2 -1 -1 -2 -2 -2 -2 -2 -2 -2 -2 -2 -2 -2 -2 -2 -2 -2 -3 -3 -3 -3 -3 -3 -2 -2 -3 -3 -3 -3 -2 -2 -2 -2 -2 -1 -1 -2 -2 -3 -2 -2 -2 -2 -2 -1 -1 -0 -0 -0 -0
3 3 3 3 3 3 3 3 3 2 3 2 2 2 2 2 2 2 2 3 3 3 3 3 2 2 1 -0 -1 -1 -1 -2 -2 -2 -2 -2 -1 -2 -2 -2 -2 -2 -1 -2 -2 -2 -2 -2 -2 -2 -2 -2 -2 -2 -2 -2 -2 -2 -2 -3 -2 -2 -3 -3 -2 -2 -2 -2 -2 -2 -3 -3 -3 -4 -3 -2 -2 -3 -3 -2 -1 -0 -0 -0 -1
3 3 3 3 3 3 3 3 3 2 2 2 2 2 2 2 2 2 2 2 3 3 3 3 2 2 1 0 -0 -1 -1 -1 -2 -2 -2 -2 -2 -1 -2 -2 -2 -2 -2 -2 -2 -2 -2 -2 -2 -2 -2 -2 -2 -2 -2 -2 -2 -2 -2 -3 -2 -3 -3 -3 -3 -3 -3 -3 -3 -4 -4 -4 -4 -4 -4 -3 -4 -3 -3 -2 -1 -0 -0 -1 -1
3 3 3 3 3 3 3 3 2 2 2 2 2 2 2 2 2 2 2 2 2 2 2 2 2 1 1 0 0 -0 -1 -1 -1 -1 -2 -2 -2 -2 -2 -2 -2 -2 -2 -2 -2 -2 -2 -2 -2 -2 -2 -2 -2 -2 -2 -2 -2 -3 -3 -3 -3 -3 -4 -4 -4 -4 -4 -4 -4 -4 -4 -4 -4 -4 -4 -3 -3 -2 -2 -1 -1 -1 -1 -1 -2
3 3 3 3 3 3 3 3 2 2 2 2 2 2 2 2 2 2 2 2 2 2 2 2 2 1 1 1 0 -0 -0 -1 -1 -1 -2 -2 -2 -2 -2 -2 -2 -2 -2 -2 -2 -2 -2 -2 -2 -3 -3 -2 -2 -2 -3 -3 -3 -3 -3 -4 -4 -3 -3 -4 -4 -4 -4 -4 -4 -4 -4 -4 -3 -3 -3 -2 -2 -2 -2 -1 -1 -2 -2 -2 -2
3 3 3 3 3 3 3 3 2 2 2 2 2 2 2 2 2 2 2 2 2 2 2 2 2 1 1 1 0 0 -0 -1 -1 -1 -2 -2 -2 -2 -2 -2 -3 -3 -3 -3 -3 -3 -2 -2 -3 -3 -3 -3 -3 -3 -3 -3 -3 -3 -3 -4 -3 -3 -3 -3 -3 -3 -4 -4 -4 -4 -4 -3 -3 -2 -2 -2 -2 -1 -1 -1 -1 -1 -2 -2 -2
3 3 3 3 3 3 3 3 2 2 2 2 2 2 2 2 2 2 2 2 2 2 2 2 2 1 1 1 1 0 0 -0 -1 -1 -1 -2 -2 -2 -2 -2 -2 -3 -3 -3 -3 -3 -3 -3 -3 -3 -3 -3 -3 -3 -3 -3 -4 -4 -4 -4 -3 -3 -3 -3 -3 -3 -3 -3 -3 -3 -3 -3 -2 -2 -2 -2 -2 -2 -1 -1 -1 -1 -2 -2 -2
3 3 3 3 3 3 3 2 2 2 2 2 2 2 2 2 2 1 2 2 2 2 2 2 2 2 1 1 1 1 0 -0 -1 -1 -1 -2 -2 -2 -2 -2 -2 -2 -3 -3 -3 -3 -3 -3 -3 -3 -3 -3 -3 -3 -3 -3 -4 -4 -4 -4 -4 -4 -4 -4 -4 -3 -3 -3 -3 -3 -2 -2 -2 -2 -1 -2 -2 -2 -2 -1 -1 -1 -2 -2 -2
4 3 3 3 3 3 3 2 2 2 2 2 2 2 2 2 1 1 1 1 1 1 1 2 2 2 1 1 1 0 0 -0 -1 -1 -1 -1 -2 -2 -2 -2 -2 -2 -2 -3 -3 -3 -3 -3 -3 -3 -3 -3 -3 -3 -3 -3 -4 -4 -4 -4 -4 -4 -4 -4 -4 -3 -3 -3 -2 -2 -2 -1 -1 -1 -1 -1 -2 -2 -2 -1 -1 -2 -2 -2 -2
4 3 3 3 3 3 3 2 2 2 2 2 2 2 2 1 1 1 1 1 1 1 1 1 1 1 1 1 1 0 0 -0 -1 -1 -1 -1 -1 -2 -2 -2 -2 -2 -2 -3 -3 -3 -3 -3 -3 -3 -3 -3 -3 -3 -3 -3 -4 -4 -4 -4 -4 -4 -4 -4 -4 -3 -3 -2 -2 -2 -2 -1 -1 -1 -1 -1 -1 -1 -1 -1 -1 -2 -3 -2 -2
4 3 3 3 3 3 2 2 2 2 2 2 2 2 1 1 1 1 1 1 1 1 1 1 1 1 1 1 1 0 0 0 -0 -1 -1 -1 -1 -2 -2 -2 -2 -2 -3 -3 -3 -3 -3 -3 -3 -3 -3 -3 -3 -3 -4 -4 -4 -4 -4 -4 -4 -4 -4 -4 -3 -3 -2 -2 -2 -1 -1 -1 -1 -1 -1 -1 -1 -1 -1 -1 -1 -2 -3 -3 -3
4 3 3 3 3 2 2 2 2 2 2 2 2 1 1 1 1 1 1 1 1 1 1 1 1 1 1 1 1 0 0 0 -0 -0 -1 -1 -1 -2 -2 -2 -2 -2 -2 -3 -3 -3 -3 -3 -3 -3 -3 -3 -3 -3 -4 -4 -4 -4 -4 -4 -4 -4 -4 -4 -3 -3 -2 -2 -2 -2 -2 -2 -1 -1 -1 -2 -1 -1 -1 -1 -1 -2 -3 -3 -3
4 3 3 3 2 2 2 2 2 2 2 1 1 1 1 1 1 1 1 1 1 1 1 1 1 1 1 1 1 0 0 -0 -0 -0 -0 -1 -1 -1 -2 -2 -2 -2 -2 -2 -2 -3 -3 -3 -3 -3 -3 -3 -3 -3 -4 -4 -4 -4 -4 -4 -4 -5 -4 -4 -4 -4 -3 -3 -3 -3 -2 -2 -1 -1 -1 -1 -2 -1 -1 -1 -1 -1 -2 -2 -2
4 3 3 3 2 2 2 2 2 2 2 1 1 1 1 1 1 1 1 1 0 0 0 0 0 1 1 1 1 0 0 -0 -0 -0 -0 -0 -1 -1 -1 -2 -2 -2 -2 -2 -2 -3 -3 -3 -3 -3 -3 -3 -3 -3 -4 -4 -4 -4 -4 -4 -4 -5 -5 -4 -4 -4 -4 -4 -3 -3 -3 -2 -1 -1 -1 -1 -2 -2 -1 -1 -1 -1 -2 -2 -2
3 3 3 3 2 2 2 2 2 1 1 1 1 1 1 1 1 1 1 0 0 -0 -0 -0 -0 0 0 0 0 0 0 -0 -0 -0 -0 -1 -1 -1 -1 -2 -2 -2 -2 -2 -3 -3 -3 -3 -3 -3 -3 -3 -3 -3 -4 -4 -4 -4 -4 -4 -5 -5 -5 -5 -5 -5 -4 -4 -3 -3 -3 -2 -2 -1 -1 -1 -2 -2 -2 -1 -1 -1 -2 -2 -2
3 3 3 2 2 2 2 2 1 1 1 1 1 1 1 1 1 1 0 0 -0 -0 -1 -1 -0 -0 -0 -0 -0 0 0 -0 -0 -0 -1 -1 -1 -1 -1 -1 -2 -2 -2 -3 -3 -3 -3 -3 -4 -4 -4 -4 -4 -4 -4 -4 -4 -4 -4 -5 -5 -5 -5 -5 -5 -5 -5 -4 -4 -3 -3 -2 -2 -2 -1 -2 -2 -2 -2 -1 -1 -2 -2 -2 -2
3 3 3 2 2 2 2 2 1 1 1 1 1 1 1 1 1 0 0 -0 -0 -1 -1 -1 -1 -1 -1 -0 -0 -0 -1 -0 -0 -0 -1 -1 -1 -1 -1 -1 -1 -2 -2 -3 -3 -3 -3 -3 -4 -4 -4 -4 -4 -4 -4 -4 -4 -4 -5 -5 -5 -5 -5 -5 -5 -5 -5 -5 -4 -4 -3 -3 -2 -2 -2 -2 -2 -2 -2 -1 -1 -2 -2 -2 -2
3 3 3 2 2 2 2 2 1 1 1 1 1 1 1 1 0 0 0 -0 -1 -1 -1 -1 -1 -1 -1 -1 -1 -1 -1 -1 -1 -1 -1 -1 -1 -1 -1 -1 -1 -1 -2 -2 -3 -3 -3 -3 -3 -4 -4 -4 -4 -4 -4 -4 -4 -4 -4 -5 -5 -5 -5 -5 -5 -6 -5 -5 -5 -4 -4 -3 -3 -3 -2 -2 -2 -2 -2 -2 -2 -2 -2 -2 -2
3 3 2 2 2 2 2 2 1 1 1 1 1 1 1 0 0 0 -0 -1 -1 -1 -1 -1 -1 -1 -1 -1 -1 -1 -1 -1 -1 -1 -1 -1 -1 -1 -1 -1 -1 -1 -1 -2 -2 -3 -3 -3 -3 -4 -4 -4 -4 -5 -5 -5 -5 -5 -5 -5 -5 -5 -5 -6 -6 -6 -5 -5 -5 -4 -4 -4 -3 -3 -3 -2 -2 -2 -2 -2 -2 -2 -3 -3 -2
3 3 2 2 2 2 2 2 1 1 1 1 1 1 0 0 0 -0 -0 -1 -1 -1 -1 -2 -2 -1 -1 -1 -1 -1 -1 -1 -1 -1 -1 -1 -1 -2 -2 -2 -2 -1 -1 -2 -2 -2 -3 -3 -3 -3 -4 -4 -4 -5 -5 -5 -5 -5 -5 -5 -5 -5 -6 -6 -6 -6 -5 -5 -5 -5 -4 -4 -3 -3 -3 -3 -2 -2 -2 -2 -2 -2 -3 -3 -3
3 2 2 2 2 2 2 1 1 1 1 1 1 1 0 0 -0 -0 -0 -1 -1 -1 -2 -2 -2 -2 -2 -2 -1 -1 -1 -1 -1 -1 -1 -1 -1 -1 -1 -2 -1 -1 -1 -2 -2 -2 -2 -3 -3 -4 -4 -4 -4 -5 -5 -5 -5 -5 -5 -5 -6 -6 -6 -6 -6 -6 -6 -5 -5 -5 -5 -4 -4 -3 -3 -3 -2 -2 -2 -2 -2 -2 -3 -3 -3
3 2 2 2 2 2 2 1 1 1 1 1 1 0 0 0 -0 -0 -1 -1 -1 -1 -2 -2 -2 -2 -2 -2 -2 -2 -2 -1 -1 -1 -1 -1 -1 -1 -1 -1 -1 -1 -1 -2 -2 -2 -2 -3 -3 -4 -4 -4 -4 -4 -5 -5 -5 -5 -5 -5 -6 -6 -6 -6 -6 -6 -6 -6 -5 -5 -5 -4 -4 -4 -4 -3 -3 -3 -2 -2 -2 -2 -3 -3 -3
3 2 2 2 2 2 2 1 1 1 1 1 1 0 0 0 -0 -0 -1 -1 -1 -1 -2 -2 -2 -2 -2 -2 -2 -2 -2 -2 -2 -1 -1 -1 -1 -1 -1 -1 -1 -1 -1 -2 -2 -2 -2 -3 -3 -3 -4 -4 -4 -4 -5 -5 -5 -5 -5 -5 -5 -5 -6 -6 -6 -6 -6 -6 -5 -5 -5 -5 -4 -4 -4 -4 -4 -3 -3 -3 -2 -2 -3 -3 -4
3 2 2 2 2 2 2 1 1 1 1 1 0 0 0 -0 -0 -0 -1 -1 -1 -2 -2 -2 -2 -2 -2 -2 -2 -2 -2 -2 -1 -1 -1 -1 -1 -1 -1 -1 -1 -2 -2 -2 -2 -2 -3 -3 -4 -4 -4 -4 -4 -4 -4 -4 -5 -5 -5 -5 -5 -5 -5 -5 -5 -6 -6 -6 -6 -5 -5 -5 -5 -4 -4 -4 -4 -4 -3 -3 -3 -3 -3 -3 -4
2 2 2 2 2 2 2 1 1 1 1 1 0 0 -0 -0 -0 -1 -1 -1 -1 -2 -2 -2 -2 -2 -2 -2 -2 -2 -2 -2 -1 -1 -1 -1 -1 -1 -1 -2 -2 -2 -3 -3 -3 -3 -3 -4 -4 -4 -4 -4 -4 -4 -4 -4 -4 -5 -5 -5 -5 -5 -5 -5 -5 -6 -6 -6 -6 -5 -5 -5 -5 -5 -5 -4 -4 -4 -4 -3 -3 -3 -3 -3 -4
3 2 2 2 2 2 2 1 1 1 1 1 0 0 -0 -0 -1 -1 -1 -1 -1 -2 -2 -2 -2 -2 -2 -2 -2 -2 -2 -2 -2 -2 -2 -2 -2 -2 -2 -2 -2 -3 -3 -3 -3 -4 -4 -4 -4 -4 -4 -4 -4 -4 -4 -4 -4 -5 -5 -5 -5 -5 -5 -6 -6 -6 -6 -6 -6 -6 -6 -6 -6 -5 -5 -5 -5 -5 -4 -4 -4 -3 -3 -3 -3
3 2 2 2 2 2 2 1 1 1 1 0 0 -0 -0 -0 -1 -1 -1 -1 -2 -2 -2 -2 -2 -2 -2 -2 -2 -2 -2 -2 -2 -2 -2 -2 -2 -2 -2 -3 -3 -3 -3 -3 -4 -4 -3 -4 -4 -4 -4 -4 -4 -4 -4 -4 -4 -5 -5 -5 -5 -5 -5 -6 -6 -6 -6 -6 -6 -6 -6 -6 -6 -6 -6 -5 -5 -5 -5 -4 -4 -4 -4 -3 -3
2 2 2 2 2 2 2 1 1 1 1 0 0 -0 -0 -1 -1 -1 -1 -1 -2 -2 -2 -2 -2 -2 -2 -3 -3 -3 -3 -3 -2 -3 -3 -3 -3 -3 -3 -3 -3 -4 -4 -4 -4 -4 -4 -4 -4 -4 -4 -4 -4 -4 -4 -4 -4 -5 -5 -5 -5 -5 -5 -6 -6 -6 -6 -6 -6 -6 -6 -6 -6 -6 -6 -6 -6 -5 -5 -5 -5 -4 -4 -4 -3
2 2 2 2 2 2 2 1 1 1 1 0 0 -0 -1 -1 -1 -1 -1 -1 -2 -2 -2 -2 -2 -3 -3 -3 -3 -3 -3 -3 -3 -3 -3 -3 -3 -4 -4 -4 -4 -4 -4 -4 -4 -4 -4 -4 -4 -4 -4 -4 -4 -4 -4 -4 -5 -5 -5 -5 -5 -5 -6 -6 -6 -6 -6 -6 -6 -6 -6 -6 -6 -6 -6 -6 -6 -6 -5 -5 -5 -4 -4 -4 -4
2 2 2 2 2 2 2 1 1 1 1 0 -0 -0 -1 -1 -1 -1 -1 -2 -2 -2 -2 -2 -2 -3 -3 -3 -3 -3 -3 -3 -3 -3 -3 -4 -4 -4 -4 -4 -4 -4 -4 -4 -4 -4 -4 -4 -4 -4 -4 -4 -5 -5 -5 -5 -5 -5 -5 -5 -5 -5 -6 -6 -6 -6 -6 -6 -6 -6 -6 -7 -6 -6 -6 -6 -6 -6 -6 -6 -5 -5 -4 -4 -4
2 2 2 2 2 2 1 1 1 1 1 0 -0 -0 -1 -1 -1 -1 -2 -2 -2 -2 -2 -2 -3 -3 -3 -3 -4 -4 -4 -4 -4 -3 -4 -4 -4 -4 -4 -4 -4 -4 -4 -4 -4 -4 -4 -4 -4 -4 -4 -4 -5 -5 -5 -5 -5 -5 -5 -5 -5 -5 -5 -6 -6 -6 -6 -6 -6 -6 -6 -6 -7 -6 -6 -6 -6 -6 -6 -6 -6 -5 -5 -4 -4
2 2 2 2 2 2 1 1 1 1 1 0 -0 -1 -1 -1 -1 -2 -2 -2 -2 -2 -2 -3 -3 -3 -3 -4 -4 -4 -4 -4 -4 -4 -4 -4 -5 -5 -5 -5 -5 -5 -4 -4 -4 -4 -4 -4 -4 -4 -4 -4 -5 -5 -5 -5 -5 -5 -5 -5 -5 -5 -5 -5 -6 -6 -6 -6 -6 -6 -6 -6 -6 -6 -6 -6 -6 -6 -6 -6 -6 -6 -5 -5 -5
2 2 2 2 2 2 1 1 1 1 0 0 -0 -1 -1 -1 -1 -2 -2 -2 -2 -2 -3 -3 -3 -3 -4 -4 -4 -4 -5 -5 -5 -5 -5 -5 -5 -5 -5 -5 -5 -5 -5 -5 -5 -5 -5 -5 -5 -5 -5 -5 -5 -5 -5 -5 -5 -5 -5 -5 -5 -5 -6 -6 -6 -6 -6 -6 -6 -6 -6 -6 -6 -6 -6 -6 -6 -6 -6 -6 -6 -6 -6 -5 -5
2 2 2 2 2 2 1 1 1 1 0 -0 -0 -1 -1 -1 -2 -2 -2 -2 -3 -3 -3 -3 -3 -3 -4 -4 -4 -5 -5 -5 -5 -5 -5 -5 -5 -5 -5 -5 -6 -5 -5 -5 -5 -5 -5 -5 -5 -5 -5 -5 -5 -5 -5 -5 -5 -5 -5 -5 -6 -6 -6 -6 -6 -6 -6 -6 -6 -6 -6 -6 -6 -6 -6 -6 -6 -6 -6 -6 -6 -6 -6 -5 -5
2 2 2 1 1 1 1 1 1 0 0 -0 -0 -1 -1 -1 -2 -2 -2 -3 -3 -3 -3 -3 -3 -4 -4 -4 -4 -5 -5 -5 -6 -5 -6 -6 -6 -6 -6 -6 -6 -6 -6 -6 -6 -6 -6 -5 -5 -5 -5 -5 -5 -5 -5 -5 -5 -5 -5 -5 -6 -6 -6 -6 -6 -6 -6 -6 -6 -6 -6 -6 -6 -6 -6 -6 -6 -6 -6 -6 -6 -6 -6 -6 -6
2 2 1 1 1 1 1 1 0 0 -0 -0 -1 -1 -1 -2 -2 -2 -2 -3 -3 -3 -3 -4 -4 -4 -4 -4 -4 -5 -5 -5 -6 -6 -6 -6 -6 -6 -6 -6 -6 -6 -6 -6 -6 -6 -6 -6 -6 -6 -6 -6 -6 -6 -5 -5 -5 -6 -6 -6 -6 -6 -6 -6 -6 -6 -6 -6 -6 -6 -7 -7 -6 -6 -6 -6 -6 -6 -6 -7 -7 -6 -6 -6 -6
1 1 1 1 1 1 1 0 0 -0 -0 -0 -1 -1 -1 -2 -2 -2 -3 -3 -3 -3 -4 -4 -4 -4 -4 -4 -5 -5 -5 -5 -6 -6 -6 -6 -6 -6 -6 -7 -7 -7 -7 -7 -7 -7 -6 -6 -6 -6 -6 -6 -6 -6 -6 -6 -6 -6 -6 -6 -6 -6 -6 -6 -6 -6 -6 -6 -6 -7 -7 -7 -7 -7 -6 -6 -6 -6 -7 -7 -7 -7 -7 -7 -6
1 1 1 1 1 0 0 0 0 -0 -0 -1 -1 -1 -1 -2 -2 -2 -3 -3 -3 -3 -4 -4 -4 -4 -5 -5 -5 -5 -5 -5 -6 -6 -6 -7 -7 -7 -7 -7 -7 -7 -7 -7 -7 -7 -7 -7 -7 -7 -6 -6 -6 -6 -6 -6 -6 -6 -6 -6 -6 -6 -6 -6 -6 -6 -7 -7 -7 -7 -7 -7 -7 -7 -7 -7 -7 -7 -7 -7 -7 -7 -7 -7 -7
1 1 1 1 0 0 -0 -0 -0 -0 -1 -1 -1 -1 -2 -2 -3 -3 -3 -3 -3 -4 -4 -4 -5 -5 -5 -5 -5 -5 -5 -5 -6 -6 -7 -7 -7 -7 -7 -7 -7 -7 -7 -7 -7 -7 -7 -7 -7 -7 -7 -7 -7 -7 -6 -6 -6 -6 -6 -6 -7 -7 -7 -7 -7 -7 -7 -7 -7 -7 -7 -7 -7 -7 -7 -7 -7 -7 -7 -7 -7 -7 -7 -7 -7
1 1 0 0 0 -0 -1 -1 -1 -1 -1 -1 -2 -2 -2 -3 -3 -3 -3 -4 -4 -4 -4 -5 -5 -5 -5 -5 -5 -5 -6 -6 -6 -6 -7 -7 -7 -7 -7 -7 -7 -7 -7 -7 -7 -7 -7 -7 -7 -7 -7 -7 -7 -7 -7 -7 -7 -7 -7 -7 -7 -7 -7 -7 -7 -7 -7 -7 -7 -7 -7 -7 -7 -7 -7 -7 -7 -7 -7 -7 -7 -7 -7 -7 -7
1 1 0 -0 -0 -1 -1 -1 -1 -1 -1 -1 -2 -2 -2 -3 -3 -3 -4 -4 -4 -4 -4 -5 -5 -5 -6 -6 -6 -6 -6 -6 -6 -6 -7 -7 -7 -7 -7 -7 -7 -7 -7 -7 -8 -7 -7 -7 -7 -7 -7 -7 -7 -7 -7 -7 -7 -7 -7 -7 -7 -7 -7 -7 -7 -7 -7 -7 -7 -7 -7 -7 -7 -7 -8 -7 -7 -7 -7 -7 -7 -7 -7 -7 -7
1 0 -0 -0 -1 -1 -1 -1 -1 -1 -1 -2 -2 -3 -3 -3 -3 -4 -4 -4 -5 -5 -5 -5 -5 -6 -6 -6 -6 -6 -6 -6 -6 -6 -7 -7 -7 -7 -7 -7 -7 -8 -8 -8 -8 -8 -8 -8 -8 -8 -8 -8 -8 -7 -7 -7 -7 -7 -7 -7 -7 -7 -7 -7 -7 -8 -8 -8 -7 -7 -7 -7 -7 -8 -8 -8 -8 -8 -8 -8 -7 -7 -7 -7 -7
1 0 0 -0 -1 -1 -1 -1 -1 -2 -2 -2 -3 -3 -3 -3 -4 -4 -4 -5 -5 -5 -6 -6 -6 -6 -6 -6 -6 -6 -7 -7 -7 -7 -7 -7 -7 -7 -7 -8 -8 -8 -8 -8 -8 -8 -8 -8 -8 -8 -8 -8 -8 -8 -8 -7 -7 -7 -7 -7 -7 -7 -7 -7 -8 -8 -8 -8 -8 -8 -8 -7 -8 -8 -8 -8 -8 -8 -8 -8 -8 -8 -8 -8 -8
1 0 -0 -0 -1 -1 -1 -1 -1 -2 -2 -3 -3 -4 -4 -4 -4 -4 -5 -5 -5 -6 -6 -6 -6 -6 -6 -7 -7 -7 -7 -7 -7 -7 -7 -7 -7 -7 -8 -8 -8 -8 -8 -8 -8 -8 -8 -8 -8 -8 -8 -8 -8 -8 -8 -8 -8 -7 -7 -7 -7 -7 -8 -8 -8 -8 -8 -8 -8 -8 -8 -8 -8 -8 -8 -8 -8 -8 -8 -8 -8 -8 -8 -8 -8
0 -0 -0 -1 -1 -1 -1 -1 -2 -2 -2 -3 -3 -4 -4 -4 -4 -5 -5 -5 -6 -6 -6 -6 -7 -7 -7 -7 -7 -7 -7 -8 -8 -8 -8 -8 -8 -8 -8 -8 -8 -8 -8 -8 -8 -8 -9 -9 -8 -8 -8 -8 -8 -8 -8 -8 -8 -8 -8 -8 -8 -8 -8 -8 -8 -8 -8 -8 -8 -8 -8 -8 -8 -8 -8 -8 -8 -8 -8 -8 -8 -8 -8 -8 -8
-0 -0 -1 -1 -1 -1 -1 -2 -2 -2 -3 -3 -3 -4 -4 -4 -4 -5 -5 -5 -6 -6 -6 -7 -7 -7 -7 -7 -7 -8 -8 -8 -8 -8 -8 -8 -8 -8 -8 -8 -8 -8 -8 -8 -9 -9 -9 -9 -9 -8 -8 -8 -8 -8 -8 -8 -8 -8 -8 -8 -8 -8 -8 -8 -8 -8 -8 -8 -8 -8 -8 -8 -8 -8 -8 -8 -8 -8 -8 -8 -8 -8 -8 -8 -8
Height
3148 3146 3144 3143 3141 3139 3137 3135 3132 3130 3128 3125 3122 3119 3116 3112 3109 3105 3101 3098 3094 3091 3087 3084 3081 3077 3074 3071 3069 3067 3065 3064 3061 3057 3054 3050 3048 3045 3042 3038 3033 3029 3026 3023 3020 3017 3015 3013 3012 3011 3010 3009 3009 3008 3008 3009 3010 3011 3012 3014 3015 3015 3016 3017 3018 3019 3020 3022 3024 3025 3026 3028 3029 3030 3031 3033 3034 3033 3033 3033 3033 3033 3034 3034 3033
3148 3147 3145 3143 3141 3139 3137 3135 3133 3131 3129 3126 3123 3120 3117 3113 3110 3106 3103 3099 3096 3092 3088 3085 3082 3078 3075 3073 3070 3069 3067 3066 3063 3060 3057 3054 3051 3049 3046 3042 3038 3035 3031 3028 3025 3021 3019 3017 3015 3014 3012 3012 3011 3011 3011 3012 3013 3014 3015 3017 3017 3017 3018 3020 3021 3022 3023 3025 3027 3028 3029 3030 3031 3032 3033 3034 3034 3033 3033 3034 3034 3034 3035 3034 3033
3149 3147 3145 3143 3141 3139 3137 3136 3134 3131 3129 3127 3124 3121 3118 3114 3111 3107 3104 3100 3096 3093 3089 3086 3083 3080 3077 3074 3072 3070 3069 3068 3065 3062 3059 3056 3054 3052 3049 3046 3043 3039 3036 3033 3030 3027 3024 3022 3021 3019 3018 3016 3016 3015 3016 3016 3017 3018 3018 3019 3020 3020 3021 3022 3024 3025 3027 3028 3030 3030 3031 3031 3033 3034 3035 3035 3035 3035 3035 3035 3035 3035 3035 3035 3034
3149 3147 3145 3143 3141 3140 3138 3136 3134 3132 3130 3127 3125 3122 3118 3115 3112 3108 3105 3101 3098 3094 3090 3087 3085 3082 3079 3076 3074 3072 3071 3069 3067 3064 3062 3059 3056 3054 3052 3050 3047 3044 3041 3039 3036 3033 3030 3027 3026 3025 3024 3022 3021 3021 3021 3021 3021 3022 3022 3022 3023 3023 3024 3026 3028 3029 3031 3032 3032 3032 3033 3033 3035 3036 3036 3036 3036 3036 3036 3036 3037 3036 3036 3035 3034
3149 3147 3145 3143 3142 3140 3139 3137 3135 3133 3130 3128 3125 3122 3119 3116 3113 3109 3106 3102 3099 3096 3092 3089 3086 3083 3081 3078 3075 3074 3072 3070 3069 3067 3064 3062 3059 3057 3056 3054 3051 3048 3045 3043 3041 3038 3036 3033 3031 3030 3029 3028 3027 3026 3026 3026 3026 3026 3027 3027 3028 3028 3028 3029 3031 3032 3033 3034 3035 3035 3035 3036 3037 3037 3037 3037 3037 3038 3038 3038 3037 3037 3036 3036 3035
3149 3148 3146 3144 3142 3141 3139 3137 3135 3133 3131 3128 3126 3123 3120 3117 3114 3110 3107 3103 3100 3097 3093 3090 3087 3084 3082 3079 3077 3075 3074 3072 3071 3068 3066 3064 3062 3060 3059 3057 3055 3052 3049 3047 3045 3042 3040 3038 3036 3035 3034 3033 3032 3032 3032 3032 3031 3032 3032 3032 3033 3033 3033 3034 3035 3035 3036 3037 3037 3038 3038 3039 3039 3039 3039 3039 3039 3039 3039 3039 3038 3038 3038 3037 3036
3149 3148 3146 3144 3143 3141 3140 3137 3135 3133 3131 3129 3126 3124 3121 3118 3115 3111 3108 3104 3101 3098 3095 3091 3088 3086 3083 3081 3078 3077 3075 3074 3072 3070 3068 3066 3065 3063 3061 3060 3058 3056 3053 3051 3049 3047 3045 3043 3040 3039 3038 3037 3037 3037 3037 3037 3037 3037 3037 3037 3037 3037 3038 3038 3039 3039 3039 3040 3040 3040 3041 3041 3042 3042 3042 3041 3041 3041 3041 3040 3040 3039 3039 3038 3036
3149 3148 3146 3145 3143 3142 3140 3138 3135 3133 3131 3129 3127 3124 3121 3119 3116 3113 3109 3106 3102 3099 3096 3093 3089 3087 3085 3083 3080 3079 3077 3076 3074 3072 3070 3069 3067 3065 3064 3063 3061 3060 3057 3055 3053 3051 3049 3047 3045 3043 3042 3041 3041 3041 3041 3042 3041 3041 3041 3041 3041 3041 3042 3042 3043 3043 3043 3043 3043 3043 3044 3044 3044 3044 3043 3043 3043 3042 3042 3042 3041 3041 3039 3038 3036
3149 3148 3147 3145 3144 3142 3140 3138 3135 3133 3131 3129 3127 3125 3122 3119 3116 3114 3110 3107 3104 3100 3097 3094 3091 3089 3086 3084 3082 3080 3080 3078 3076 3074 3072 3071 3069 3068 3066 3065 3064 3062 3061 3059 3057 3055 3053 3051 3049 3048 3047 3045 3045 3044 3045 3045 3045 3045 3045 3045 3045 3046 3047 3047 3047 3047 3047 3047 3047 3046 3046 3046 3046 3045 3044 3044 3044 3043 3043 3043 3042 3041 3040 3038 3037
3149 3148 3147 3145 3144 3142 3140 3138 3136 3134 3132 3130 3128 3125 3123 3120 3117 3115 3112 3109 3105 3102 3098 3095 3093 3090 3088 3086 3083 3082 3081 3079 3077 3075 3074 3072 3071 3070 3068 3067 3066 3065 3063 3062 3060 3059 3057 3055 3054 3052 3051 3050 3049 3048 3048 3048 3048 3048 3048 3049 3049 3050 3051 3051 3051 3050 3050 3050 3049 3049 3048 3047 3047 3046 3045 3045 3045 3044 3044 3044 3043 3042 3040 3039 3038
3150 3148 3147 3145 3144 3142 3140 3138 3136 3134 3132 3130 3128 3126 3123 3121 3118 3116 3113 3110 3107 3104 3100 3097 3094 3092 3089 3087 3085 3083 3082 3080 3078 3077 3076 3074 3073 3072 3070 3069 3068 3067 3066 3065 3063 3062 3060 3059 3058 3057 3056 3055 3054 3053 3052 3052 3052 3052 3052 3052 3052 3052 3053 3053 3053 3053 3052 3052 3051 3050 3049 3048 3047 3047 3046 3046 3046 3046 3045 3045 3044 3042 3041 3040 3038
3150 3148 3147 3145 3144 3142 3140 3138 3137 3135 3133 3131 3129 3126 3124 3122 3119 3117 3114 3111 3108 3105 3102 3099 3096 3093 3091 3088 3086 3084 3082 3081 3079 3079 3078 3076 3075 3074 3073 3071 3070 3069 3068 3067 3066 3064 3063 3062 3061 3060 3059 3058 3058 3057 3056 3055 3055 3056 3056 3056 3055 3055 3055 3055 3055 3055 3054 3053 3052 3051 3050 3049 3048 3048 3048 3047 3047 3047 3046 3045 3045 3043 3042 3041 3039
3149 3148 3147 3145 3144 3142 3140 3139 3137 3135 3133 3131 3129 3127 3124 3122 3120 3118 3115 3112 3109 3106 3103 3100 3098 3095 3092 3089 3087 3085 3083 3082 3081 3080 3079 3078 3077 3076 3074 3073 3072 3071 3070 3069 3068 3067 3066 3065 3064 3063 3062 3061 3061 3060 3059 3058 3058 3058 3059 3059 3058 3058 3057 3057 3056 3055 3054 3053 3052 3051 3050 3050 3049 3049 3049 3048 3048 3048 3047 3046 3045 3044 3043 3042 3040
3149 3148 3147 3145 3144 3142 3141 3139 3137 3136 3134 3132 3130 3127 3125 3123 3121 3119 3116 3113 3111 3108 3105 3102 3099 3097 3094 3091 3089 3087 3085 3084 3082 3081 3080 3079 3078 3077 3076 3075 3074 3073 3072 3071 3070 3069 3068 3067 3066 3065 3064 3064 3063 3062 3062 3061 3060 3060 3061 3060 3060 3060 3059 3058 3057 3056 3055 3053 3053 3052 3051 3051 3050 3050 3050 3049 3049 3049 3048 3047 3046 3045 3044 3043 3042
3149 3148 3146 3145 3144 3142 3141 3139 3138 3136 3135 3133 3130 3128 3126 3124 3122 3120 3117 3114 3112 3109 3106 3104 3101 3098 3095 3093 3091 3089 3087 3085 3083 3082 3081 3080 3079 3078 3077 3076 3075 3074 3073 3072 3071 3071 3070 3069 3068 3067 3067 3066 3065 3065 3064 3063 3063 3063 3063 3062 3061 3061 3060 3059 3058 3057 3055 3054 3053 3052 3052 3051 3051 3051 3050 3050 3050 3049 3049 3048 3047 3045 3045 3044 3043
3148 3147 3146 3145 3144 3143 3141 3140 3138 3137 3135 3133 3131 3129 3127 3125 3123 3120 3118 3115 3112 3110 3108 3105 3102 3100 3097 3095 3093 3090 3088 3087 3085 3083 3082 3080 3080 3079 3078 3077 3076 3075 3074 3074 3073 3072 3071 3071 3070 3069 3069 3068 3067 3066 3066 3065 3065 3065 3065 3064 3063 3062 3061 3060 3058 3057 3056 3055 3054 3053 3052 3052 3051 3051 3051 3050 3050 3050 3050 3049 3047 3046 3046 3045 3044
3148 3147 3146 3145 3144 3142 3141 3140 3138 3137 3135 3133 3132 3130 3128 3126 3123 3121 3118 3116 3113 3111 3109 3106 3104 3102 3099 3097 3095 3092 3090 3088 3086 3085 3083 3081 3080 3080 3078 3078 3077 3076 3075 3074 3074 3073 3072 3072 3071 3071 3070 3069 3069 3068 3067 3067 3066 3066 3066 3065 3064 3063 3062 3061 3059 3058 3057 3056 3055 3054 3053 3052 3052 3052 3052 3051 3051 3051 3050 3049 3048 3047 3046 3046 3045
3147 3146 3146 3145 3144 3142 3141 3140 3139 3137 3135 3134 3132 3130 3128 3126 3124 3122 3119 3117 3114 3112 3110 3107 3106 3104 3101 3099 3097 3094 3092 3090 3088 3086 3085 3083 3081 3080 3079 3078 3078 3077 3076 3075 3074 3074 3073 3072 3072 3071 3071 3070 3070 3069 3068 3068 3068 3067 3066 3065 3065 3064 3062 3061 3060 3059 3057 3056 3055 3054 3054 3053 3053 3053 3053 3053 3052 3052 3051 3050 3049 3048 3047 3047 3046
3147 3146 3145 3144 3143 3142 3141 3140 3139 3137 3136 3134 3133 3131 3129 3127 3125 3123 3120 3118 3115 3113 3111 3109 3107 3105 3103 3100 3098 3096 3094 3092 3090 3088 3086 3084 3083 3081 3080 3079 3078 3078 3077 3076 3075 3074 3073 3073 3072 3072 3071 3071 3070 3070 3069 3069 3068 3068 3067 3066 3065 3065 3063 3062 3061 3060 3058 3057 3057 3056 3055 3055 3054 3054 3054 3053 3053 3052 3052 3051 3050 3049 3048 3048 3047
3146 3146 3145 3144 3143 3142 3141 3140 3139 3137 3136 3134 3133 3132 3130 3128 3126 3124 3122 3119 3116 3114 3112 3110 3109 3106 3104 3102 3099 3098 3096 3094 3092 3090 3088 3086 3084 3082 3081 3080 3079 3078 3077 3076 3075 3074 3074 3073 3073 3072 3072 3071 3070 3070 3070 3069 3069 3068 3068 3067 3066 3066 3065 3063 3062 3061 3060 3059 3058 3057 3057 3056 3055 3055 3055 3054 3054 3053 3053 3052 3051 3050 3049 3049 3048
3146 3145 3145 3144 3143 3142 3140 3139 3138 3137 3136 3135 3133 3132 3130 3129 3127 3125 3122 3120 3118 3115 3114 3112 3110 3108 3106 3103 3101 3099 3097 3095 3093 3092 3090 3088 3085 3084 3082 3081 3080 3079 3078 3077 3076 3076 3075 3074 3073 3073 3072 3071 3071 3070 3070 3069 3069 3069 3068 3068 3067 3066 3065 3064 3063 3062 3061 3060 3059 3058 3057 3057 3056 3055 3055 3055 3054 3054 3054 3053 3052 3051 3050 3050 3049
3145 3145 3144 3143 3142 3141 3140 3139 3138 3137 3136 3135 3134 3132 3131 3129 3128 3126 3123 3121 3119 3117 3115 3113 3111 3109 3107 3105 3103 3101 3098 3096 3094 3093 3091 3090 3088 3086 3084 3083 3082 3080 3079 3078 3078 3077 3076 3075 3074 3074 3073 3072 3072 3071 3070 3070 3069 3069 3069 3068 3068 3067 3066 3065 3064 3063 3062 3061 3060 3059 3058 3057 3057 3056 3056 3055 3055 3055 3054 3054 3053 3052 3051 3051 3050
3145 3144 3144 3143 3142 3141 3140 3139 3137 3136 3135 3134 3133 3132 3131 3130 3128 3126 3124 3122 3120 3118 3116 3114 3113 3111 3109 3106 3104 3102 3100 3098 3096 3095 3093 3091 3089 3088 3086 3084 3083 3082 3081 3080 3079 3078 3077 3077 3076 3075 3074 3073 3072 3072 3071 3070 3070 3069 3069 3068 3068 3067 3067 3065 3064 3063 3062 3062 3061 3060 3058 3058 3057 3057 3056 3056 3056 3055 3055 3054 3053 3053 3052 3052 3051
3144 3144 3143 3142 3142 3140 3139 3138 3137 3136 3135 3134 3133 3132 3130 3129 3128 3126 3124 3123 3121 3119 3117 3115 3114 3112 3110 3108 3106 3104 3102 3100 3099 3097 3095 3093 3091 3089 3087 3085 3084 3083 3082 3081 3080 3079 3078 3078 3077 3076 3075 3074 3073 3073 3072 3071 3071 3070 3069 3069 3068 3068 3067 3066 3065 3064 3063 3062 3061 3060 3059 3058 3058 3058 3057 3057 3056 3056 3055 3055 3054 3054 3053 3053 3053
3144 3143 3143 3142 3141 3140 3139 3138 3137 3136 3135 3134 3133 3132 3130 3129 3127 3126 3124 3123 3121 3119 3118 3116 3115 3113 3111 3109 3107 3106 3104 3102 3100 3099 3097 3095 3093 3091 3089 3087 3086 3085 3084 3082 3082 3081 3080 3079 3078 3077 3076 3075 3074 3073 3073 3072 3071 3070 3070 3069 3068 3068 3067 3066 3065 3064 3063 3063 3062 3061 3059 3059 3058 3058 3058 3057 3057 3057 3056 3056 3055 3055 3054 3054 3054
3143 3143 3142 3141 3141 3140 3139 3138 3137 3136 3135 3134 3133 3132 3130 3129 3128 3126 3124 3123 3121 3120 3118 3117 3115 3114 3112 3110 3108 3106 3105 3103 3102 3100 3099 3097 3095 3093 3091 3090 3088 3087 3085 3084 3083 3082 3081 3080 3079 3078 3077 3076 3075 3074 3073 3073 3072 3071 3070 3069 3069 3068 3067 3066 3066 3065 3064 3063 3062 3061 3060 3059 3058 3058 3058 3058 3057 3057 3057 3056 3056 3056 3055 3055 3055
3143 3142 3141 3141 3140 3139 3139 3138 3137 3136 3135 3134 3133 3132 3131 3130 3128 3126 3125 3124 3122 3120 3119 3117 3116 3114 3112 3111 3109 3107 3106 3104 3103 3101 3099 3098 3096 3094 3093 3091 3090 3088 3086 3084 3084 3083 3082 3082 3080 3079 3078 3076 3075 3075 3074 3073 3072 3072 3071 3070 3069 3068 3067 3066 3066 3065 3064 3063 3062 3061 3060 3059 3059 3059 3058 3058 3058 3058 3057 3057 3057 3056 3056 3056 3056
3142 3141 3140 3140 3140 3139 3138 3138 3137 3136 3135 3134 3133 3132 3131 3130 3128 3127 3126 3124 3123 3121 3120 3118 3117 3115 3113 3111 3110 3108 3107 3105 3103 3102 3099 3098 3096 3095 3093 3092 3090 3088 3086 3085 3085 3084 3084 3083 3082 3080 3079 3077 3076 3075 3074 3073 3073 3072 3071 3070 3069 3068 3067 3066 3066 3065 3064 3063 3063 3062 3061 3060 3059 3059 3059 3058 3058 3058 3058 3058 3057 3057 3057 3057 3057
3141 3141 3140 3140 3139 3139 3138 3137 3136 3136 3135 3134 3133 3132 3131 3130 3129 3127 3126 3125 3124 3122 3121 3119 3118 3116 3115 3113 3111 3110 3108 3106 3104 3102 3100 3098 3097 3096 3094 3093 3091 3089 3087 3087 3086 3085 3085 3084 3083 3082 3081 3079 3078 3077 3075 3074 3073 3072 3071 3070 3069 3068 3068 3067 3066 3065 3064 3063 3063 3062 3061 3061 3060 3060 3059 3059 3059 3059 3059 3059 3058 3058 3058 3058 3058
3140 3140 3139 3139 3139 3138 3137 3137 3136 3135 3134 3133 3133 3132 3131 3130 3129 3127 3126 3125 3124 3123 3121 3120 3119 3117 3116 3114 3113 3111 3109 3107 3105 3103 3101 3099 3098 3097 3095 3093 3091 3090 3089 3088 3087 3087 3087 3086 3085 3084 3082 3081 3080 3078 3077 3075 3074 3073 3072 3071 3070 3069 3068 3067 3066 3065 3064 3064 3063 3063 3062 3061 3061 3060 3060 3059 3059 3059 3059 3059 3059 3059 3059 3058 3059
3139 3139 3139 3138 3138 3137 3137 3136 3135 3135 3134 3133 3132 3131 3130 3129 3128 3127 3126 3125 3124 3123 3122 3121 3119 3118 3117 3115 3114 3112 3110 3108 3106 3104 3102 3101 3099 3098 3096 3094 3093 3092 3091 3090 3089 3089 3089 3088 3086 3085 3083 3082 3081 3080 3078 3077 3075 3074 3073 3072 3070 3069 3068 3067 3066 3066 3065 3064 3064 3063 3063 3062 3061 3061 3060 3060 3060 3060 3060 3060 3060 3060 3060 3059 3059
3139 3138 3138 3137 3137 3137 3136 3135 3135 3134 3133 3133 3132 3131 3130 3129 3128 3127 3126 3125 3124 3123 3122 3121 3120 3119 3118 3116 3115 3113 3111 3109 3107 3106 3104 3102 3100 3099 3097 3096 3095 3094 3093 3092 3092 3091 3090 3089 3087 3086 3085 3083 3082 3080 3079 3078 3076 3075 3074 3073 3071 3070 3069 3068 3067 3066 3065 3065 3064 3064 3063 3063 3062 3062 3061 3061 3060 3060 3060 3060 3061 3061 3060 3060 3060
3138 3137 3137 3137 3136 3136 3135 3135 3134 3133 3133 3132 3131 3131 3130 3129 3128 3127 3126 3125 3124 3123 3122 3121 3120 3119 3118 3116 3115 3113 3112 3110 3108 3107 3105 3103 3101 3099 3099 3098 3097 3096 3095 3095 3094 3093 3091 3090 3088 3087 3085 3084 3083 3081 3080 3079 3078 3076 3075 3074 3072 3071 3070 3069 3067 3066 3066 3065 3065 3064 3064 3063 3063 3062 3062 3061 3061 3061 3061 3061 3061 3061 3061 3061 3061
3137 3137 3136 3136 3135 3135 3134 3134 3133 3133 3132 3131 3131 3130 3129 3128 3128 3127 3126 3125 3124 3123 3122 3121 3120 3119 3118 3117 3115 3114 3112 3111 3109 3108 3106 3104 3102 3101 3100 3099 3099 3098 3097 3096 3095 3094 3092 3091 3089 3088 3086 3085 3084 3082 3081 3080 3079 3077 3076 3075 3073 3072 3071 3069 3068 3067 3066 3066 3065 3065 3064 3064 3063 3063 3062 3062 3062 3061 3061 3061 3061 3061 3061 3061 3061
3136 3136 3135 3135 3134 3134 3134 3133 3132 3132 3131 3131 3130 3129 3129 3128 3127 3126 3126 3125 3124 3123 3122 3121 3120 3119 3118 3117 3116 3114 3113 3111 3110 3108 3107 3105 3104 3103 3102 3101 3100 3100 3099 3098 3097 3095 3093 3092 3090 3089 3088 3086 3085 3084 3082 3081 3080 3078 3077 3076 3074 3073 3072 3071 3069 3068 3067 3066 3065 3065 3065 3064 3064 3063 3063 3063 3062 3062 3061 3061 3061 3061 3061 3061 3061
3135 3135 3134 3134 3133 3133 3132 3132 3131 3131 3130 3129 3129 3128 3128 3127 3126 3126 3125 3124 3123 3123 3122 3121 3120 3119 3118 3117 3116 3114 3113 3112 3111 3109 3108 3107 3106 3105 3103 3102 3102 3101 3100 3099 3098 3096 3094 3093 3091 3090 3089 3087 3086 3085 3084 3082 3081 3080 3078 3077 3076 3074 3073 3072 3070 3069 3068 3067 3066 3065 3065 3064 3064 3063 3063 3063 3062 3062 3062 3061 3061 3061 3061 3061 3061
3134 3133 3133 3133 3132 3132 3131 3131 3130 3129 3129 3128 3128 3127 3127 3126 3125 3125 3124 3123 3123 3122 3121 3120 3120 3118 3117 3116 3115 3114 3114 3113 3112 3111 3109 3109 3108 3107 3105 3104 3103 3102 3100 3099 3098 3097 3095 3094 3092 3091 3090 3088 3087 3086 3084 3083 3082 3081 3079 3078 3077 3075 3074 3073 3071 3070 3069 3068 3067 3066 3065 3065 3064 3064 3063 3063 3063 3062 3062 3062 3061 3061 3061 3061 3061
3132 3132 3132 3131 3131 3130 3130 3129 3129 3128 3127 3127 3126 3126 3125 3125 3124 3124 3123 3122 3122 3121 3120 3120 3119 3118 3117 3116 3115 3114 3114 3113 3112 3111 3110 3109 3109 3108 3106 3105 3104 3102 3101 3100 3098 3097 3096 3094 3093 3092 3090 3089 3088 3086 3085 3084 3083 3081 3080 3079 3077 3076 3075 3074 3072 3071 3070 3069 3068 3067 3066 3065 3064 3064 3063 3063 3063 3062 3062 3062 3061 3061 3061 3061 3061
3130 3130 3130 3130 3129 3128 3128 3127 3127 3126 3126 3125 3125 3124 3124 3123 3123 3122 3122 3121 3121 3120 3120 3119 3118 3118 3117 3116 3115 3114 3114 3113 3113 3112 3111 3110 3109 3108 3107 3106 3104 3103 3102 3100 3099 3098 3096 3095 3094 3092 3091 3090 3088 3087 3086 3084 3083 3082 3080 3079 3078 3077 3075 3074 3073 3072 3070 3069 3068 3067 3066 3065 3065 3064 3063 3063 3063 3062 3062 3062 3061 3061 3061 3060 3060
3129 3128 3128 3128 3127 3127 3126 3126 3125 3124 3124 3123 3123 3122 3122 3121 3121 3121 3120 3120 3120 3119 3119 3119 3118 3117 3117 3116 3115 3114 3114 3113 3113 3112 3111 3110 3109 3108 3107 3106 3105 3104 3103 3101 3100 3099 3097 3096 3094 3093 3092 3090 3089 3087 3086 3085 3083 3082 3081 3080 3078 3077 3076 3075 3073 3072 3071 3070 3068 3067 3067 3066 3065 3064 3063 3063 3062 3062 3061 3061 3061 3061 3060 3060 3060
3126 3126 3126 3126 3126 3125 3125 3124 3123 3122 3122 3122 3121 3120 3120 3120 3119 3119 3119 3119 3118 3118 3118 3118 3117 3117 3116 3116 3115 3114 3113 3113 3112 3111 3111 3110 3109 3108 3108 3107 3105 3104 3103 3102 3101 3099 3098 3096 3095 3094 3092 3091 3089 3088 3087 3085 3084 3082 3081 3080 3078 3077 3076 3075 3073 3072 3071 3070 3069 3068 3067 3066 3065 3064 3063 3063 3062 3061 3061 3061 3060 3060 3060 3059 3059
3124 3124 3124 3124 3123 3123 3123 3122 3121 3120 3120 3120 3119 3119 3118 3118 3118 3118 3118 3117 3117 3117 3116 3116 3116 3115 3115 3114 3114 3114 3113 3112 3111 3111 3110 3109 3109 3108 3107 3107 3106 3104 3103 3102 3101 3100 3099 3097 3096 3094 3093 3091 3090 3089 3087 3086 3084 3083 3081 3080 3078 3077 3076 3074 3073 3072 3071 3070 3069 3068 3067 3066 3065 3064 3063 3062 3062 3061 3060 3060 3060 3059 3059 3059 3058
3122 3122 3121 3121 3121 3121 3120 3119 3119 3118 3118 3117 3117 3116 3116 3116 3116 3116 3116 3116 3115 3115 3114 3114 3114 3114 3113 3113 3112 3112 3112 3111 3111 3110 3109 3109 3108 3107 3107 3106 3105 3104 3103 3102 3101 3100 3099 3098 3096 3095 3093 3092 3090 3089 3088 3086 3085 3083 3082 3080 3079 3077 3076 3074 3073 3072 3071 3069 3068 3067 3066 3065 3064 3064 3063 3062 3061 3060 3060 3059 3059 3059 3058 3058 3058
3119 3119 3119 3118 3118 3118 3117 3117 3116 3116 3115 3115 3114 3114 3114 3114 3114 3114 3114 3113 3113 3113 3113 3112 3112 3112 3111 3111 3111 3110 3110 3110 3109 3109 3108 3108 3107 3107 3106 3105 3105 3104 3103 3102 3101 3100 3099 3098 3097 3095 3094 3092 3091 3089 3088 3086 3085 3083 3082 3080 3079 3077 3076 3074 3073 3072 3070 3069 3068 3067 3066 3065 3064 3063 3062 3061 3061 3060 3059 3059 3058 3058 3057 3057 3057
3116 3116 3116 3115 3115 3114 3114 3114 3113 3113 3112 3112 3112 3112 3112 3112 3112 3112 3111 3111 3111 3111 3110 3110 3110 3110 3109 3109 3109 3108 3108 3108 3108 3107 3107 3107 3106 3106 3105 3105 3104 3103 3102 3101 3101 3100 3099 3098 3097 3095 3094 3092 3091 3089 3088 3086 3084 3083 3082 3080 3079 3078 3076 3075 3073 3071 3070 3069 3068 3067 3066 3065 3064 3063 3062 3061 3060 3059 3058 3058 3057 3057 3056 3056 3056
3112 3113 3112 3112 3111 3111 3110 3110 3110 3110 3110 3110 3109 3110 3110 3109 3109 3109 3108 3108 3108 3108 3108 3108 3108 3107 3107 3107 3107 3106 3106 3106 3106 3106 3105 3105 3105 3104 3104 3103 3103 3102 3101 3100 3100 3099 3098 3097 3096 3095 3094 3092 3090 3089 3088 3086 3084 3083 3081 3080 3079 3078 3076 3075 3073 3071 3070 3069 3067 3066 3065 3064 3063 3062 3062 3061 3060 3059 3058 3057 3056 3056 3055 3055 3055
3109 3109 3109 3108 3108 3107 3107 3107 3107 3107 3107 3107 3106 3107 3107 3107 3106 3106 3106 3105 3106 3106 3106 3105 3105 3105 3105 3105 3104 3104 3104 3104 3104 3104 3104 3103 3103 3102 3102 3102 3101 3101 3100 3099 3099 3098 3097 3096 3095 3094 3093 3092 3090 3089 3088 3086 3084 3083 3081 3080 3078 3077 3076 3074 3073 3071 3070 3069 3067 3066 3064 3063 3062 3062 3061 3060 3059 3058 3057 3056 3055 3055 3054 3054 3053
3106 3106 3105 3105 3104 3104 3104 3104 3104 3104 3103 3103 3103 3103 3104 3104 3103 3102 3102 3103 3103 3103 3103 3103 3103 3102 3102 3102 3102 3102 3102 3102 3102 3102 3102 3101 3101 3101 3100 3100 3099 3099 3099 3098 3097 3097 3096 3095 3094 3093 3092 3091 3090 3088 3087 3086 3084 3083 3081 3079 3078 3076 3075 3074 3072 3071 3070 3068 3066 3065 3064 3062 3061 3061 3060 3059 3058 3057 3056 3055 3054 3053 3053 3052 3052
3103 3102 3102 3101 3101 3100 3100 3100 3100 3099 3099 3098 3099 3100 3100 3100 3100 3099 3099 3100 3100 3100 3100 3100 3100 3100 3100 3100 3100 3100 3100 3100 3100 3100 3100 3100 3099 3099 3098 3098 3098 3097 3097 3096 3096 3095 3095 3094 3093 3092 3091 3090 3089 3088 3086 3085 3083 3082 3080 3079 3077 3076 3074 3073 3072 3070 3069 3067 3066 3064 3063 3061 3060 3059 3059 3058 3057 3056 3055 3054 3053 3052 3051 3051 3051
3099 3098 3098 3098 3097 3097 3097 3096 3096 3096 3095 3095 3096 3096 3097 3096 3096 3096 3096 3097 3097 3097 3097 3097 3097 3098 3098 3097 3097 3097 3097 3097 3098 3098 3098 3097 3097 3097 3096 3096 3096 3095 3095 3095 3094 3094 3093 3093 3092 3091 3090 3089 3088 3087 3085 3084 3082 3081 3080 3078 3076 3075 3073 3072 3071 3069 3068 3066 3065 3063 3062 3060 3059 3058 3057 3057 3056 3055 3054 3053 3051 3051 3050 3049 3049
3096 3096 3095 3095 3094 3094 3094 3092 3092 3092 3092 3091 3092 3093 3093 3093 3093 3093 3093 3094 3093 3093 3093 3093 3094 3095 3095 3095 3095 3095 3095 3095 3095 3095 3095 3095 3095 3095 3095 3094 3094 3094 3093 3093 3093 3092 3092 3091 3090 3089 3088 3087 3087 3086 3084 3083 3081 3080 3079 3077 3075 3074 3072 3071 3069 3068 3066 3065 3064 3062 3061 3059 3058 3056 3056 3055 3055 3054 3052 3051 3050 3049 3048 3048 3047
Wind_Speed
17 17 19 20 21 22 24 25 26 27 27 27 27 28 29 29 30 31 32 33 33 33 32 31 30 30 30 31 31 28 25 24 26 28 29 29 31 34 35 38 41 40 37 31 26 22 19 16 16 15 12 11 11 11 13 17 19 20 18 14 12 11 9 8 11 17 20 20 19 18 17 16 15 14 13 11 9 10 10 10 9 8 8 9 11
16 17 18 20 21 23 24 25 26 27 27 27 28 28 29 30 30 31 31 32 33 33 32 31 29 29 29 30 30 28 25 23 24 27 28 27 28 31 33 35 38 39 40 39 36 32 28 25 24 23 21 19 19 21 23 23 21 19 17 14 13 13 14 15 18 21 22 21 19 17 17 17 16 14 13 12 11 12 12 10 9 10 10 12 13
16 17 18 20 21 23 24 25 26 27 27 27 27 28 29 30 30 30 30 31 32 32 32 31 29 28 28 28 28 28 25 22 22 25 28 27 27 29 32 33 35 37 37 37 38 37 35 34 34 32 30 29 30 30 29 26 23 21 21 19 18 21 23 23 22 22 21 19 18 17 17 17 16 14 13 13 12 12 12 11 10 10 11 13 14
15 17 18 20 21 23 24 25 26 26 26 27 27 27 28 29 29 29 30 30 31 32 32 31 28 26 26 26 26 26 25 22 21 23 26 27 27 28 30 32 33 34 34 33 33 34 35 35 36 35 33 33 34 33 32 30 28 27 27 27 26 27 26 23 21 20 19 18 17 18 17 16 15 14 14 13 13 13 12 10 10 10 12 14 14
15 16 18 20 21 22 23 24 25 26 26 26 26 27 27 28 29 29 29 30 30 31 31 30 28 26 25 25 25 25 25 23 21 21 24 26 26 26 27 29 31 32 32 32 31 31 32 33 34 35 35 35 35 34 33 32 31 29 29 28 26 24 24 22 20 20 19 18 17 17 17 16 14 13 13 12 12 11 10 9 10 12 13 14 14
15 16 18 19 21 22 23 24 25 25 25 26 26 26 27 28 28 28 29 29 30 31 31 31 29 26 25 25 24 23 23 22 20 20 22 24 25 25 25 26 29 30 31 31 31 30 30 30 31 32 33 33 33 32 31 29 29 28 26 25 23 22 22 21 20 20 19 19 18 17 16 15 13 11 11 11 10 9 9 10 12 13 13 13 13
15 16 17 19 20 21 22 23 24 25 25 25 26 26 27 27 28 28 29 29 30 30 31 31 29 27 25 23 23 22 21 21 20 19 20 22 22 24 25 25 25 27 29 29 30 30 30 29 29 29 29 29 29 28 28 27 27 26 25 23 21 21 22 21 20 19 18 17 17 16 14 13 10 8 8 9 9 8 7 9 11 12 12 14 14
15 16 17 18 20 21 22 23 24 24 25 25 25 25 26 27 28 28 28 28 29 30 30 31 30 28 24 22 21 21 19 19 19 19 19 20 20 22 24 24 24 24 25 26 28 30 30 30 30 29 28 28 27 26 25 25 25 26 25 23 21 20 19 18 18 18 16 15 14 12 11 10 9 6 6 6 6 7 8 8 11 12 13 15 15
14 15 16 18 19 20 21 22 23 24 24 24 24 25 26 27 27 28 28 28 29 30 31 31 31 28 25 22 21 19 17 16 17 18 19 19 19 20 22 22 22 22 22 23 25 27 28 29 30 30 29 29 29 28 26 24 22 21 21 21 21 19 16 14 14 14 12 11 10 9 8 8 7 6 6 7 7 9 9 10 11 12 13 15 16
13 15 16 17 18 19 20 21 22 23 23 23 23 24 25 26 27 27 27 28 28 30 30 31 30 28 25 23 21 19 17 16 17 18 18 19 18 18 20 20 20 20 19 20 22 24 26 27 28 28 28 28 28 29 29 27 24 21 20 20 19 19 17 15 13 11 11 10 9 9 9 9 8 7 7 8 9 9 9 10 12 12 12 14 15
13 14 15 17 18 19 19 20 21 22 22 22 23 24 25 26 26 26 26 27 28 29 30 30 30 28 26 24 22 20 18 17 18 17 16 17 17 17 17 18 18 18 18 17 18 20 22 24 25 25 25 26 26 27 27 27 25 22 20 19 18 17 16 15 14 13 13 12 11 11 10 10 10 9 8 9 9 9 9 10 12 13 14 15 15
12 13 15 16 17 18 19 19 20 21 21 21 22 23 24 25 25 25 26 27 27 28 29 30 30 29 28 26 24 22 19 18 17 15 15 15 15 15 16 16 16 16 16 16 16 17 17 19 21 21 22 23 24 24 25 26 26 23 21 18 16 15 15 15 14 13 11 11 11 10 9 9 11 11 10 9 8 9 10 11 12 14 15 15 14
11 13 14 15 16 17 18 18 19 20 20 20 21 22 23 24 24 25 25 26 27 28 29 30 30 29 29 28 26 24 20 17 16 15 14 14 14 13 14 15 14 14 14 14 14 15 14 15 16 17 18 19 20 21 21 23 24 22 21 19 18 16 15 14 13 11 10 10 11 9 8 9 10 10 10 10 9 9 10 10 12 14 15 16 14
10 12 13 14 15 16 17 17 18 18 19 19 20 21 22 23 24 24 25 26 27 28 29 29 29 29 29 29 27 25 21 18 16 15 14 13 13 13 12 13 13 12 12 11 12 12 11 11 12 12 13 13 15 17 17 18 19 18 18 18 18 17 15 13 12 11 11 11 10 9 9 9 10 9 10 11 10 10 9 10 11 12 13 14 14
10 11 12 13 14 15 16 16 17 17 18 18 19 20 21 22 22 23 24 26 27 28 28 29 30 30 30 29 28 26 23 20 17 15 14 14 13 13 13 12 12 11 11 10 10 9 9 9 9 9 9 10 12 14 15 15 15 15 14 15 16 15 14 12 12 11 11 11 10 10 8 8 10 10 10 10 10 9 9 10 11 10 10 12 14
9 10 11 12 13 14 15 15 16 16 17 18 18 19 20 21 22 23 24 26 27 28 28 29 30 30 30 29 28 27 24 22 19 16 15 14 13 13 13 13 12 11 10 10 9 9 9 8 8 7 7 7 9 11 12 11 11 11 10 11 12 12 12 12 12 11 11 11 10 9 9 9 10 11 11 10 9 9 9 11 12 12 10 10 12
9 10 11 11 12 13 14 14 15 15 16 17 18 18 19 20 21 22 24 25 26 27 28 29 29 29 29 29 28 27 25 23 20 18 15 14 13 12 12 13 12 11 10 10 9 9 9 9 8 7 6 6 6 8 10 9 8 8 7 8 10 11 12 12 13 12 11 12 11 10 11 10 9 9 10 9 8 8 10 11 12 12 11 9 10
8 9 10 11 11 12 13 14 14 15 15 16 17 17 18 19 19 21 23 24 26 27 28 29 29 28 28 28 28 27 25 23 22 19 17 15 13 12 12 12 12 11 11 11 10 9 9 9 9 8 7 6 6 7 8 8 7 6 7 9 10 11 11 12 13 13 13 14 13 11 10 9 7 7 8 8 8 8 10 11 11 11 11 9 8
8 8 9 10 11 11 12 13 13 14 15 15 16 16 17 17 18 19 21 24 25 27 28 28 28 28 28 28 28 27 25 23 22 21 19 17 16 15 14 13 11 11 11 11 12 11 10 10 9 8 8 7 7 6 5 5 4 5 7 9 10 10 11 13 14 13 13 13 13 11 9 7 6 6 7 8 8 8 10 11 11 11 10 9 9
7 8 8 9 10 10 11 12 13 13 14 14 15 15 16 16 17 18 20 23 25 26 26 27 27 27 28 28 28 27 25 23 22 21 19 18 17 16 15 14 12 11 11 12 12 12 12 11 9 9 8 8 7 6 5 4 3 3 4 6 6 7 9 11 12 12 12 13 12 11 8 7 5 5 6 7 8 8 9 10 10 10 10 9 9
7 7 8 9 9 10 11 11 12 13 13 14 14 14 15 15 16 17 19 21 23 24 25 26 26 26 27 27 26 26 25 24 23 21 19 18 18 16 15 14 12 11 12 12 12 12 11 10 9 9 8 8 7 7 6 5 3 2 2 3 3 4 6 8 10 11 12 13 14 13 10 8 5 5 6 7 7 8 8 9 10 10 10 10 9
6 7 8 8 9 9 10 11 12 12 13 13 13 14 14 15 15 16 18 20 22 23 24 25 25 25 25 26 25 25 24 23 23 21 19 18 17 16 15 15 14 13 12 12 10 10 9 9 9 8 7 7 7 6 6 6 4 3 2 1 3 4 6 7 7 9 11 12 14 14 12 9 6 5 6 6 7 7 8 9 10 10 11 10 9
6 7 7 8 8 9 10 11 12 12 13 13 13 14 14 15 15 15 17 19 21 22 23 24 24 24 24 25 25 24 22 21 21 20 19 18 18 17 17 17 16 14 13 11 9 8 7 8 8 7 7 7 7 7 7 6 5 3 2 1 3 4 5 4 5 7 10 12 14 14 13 10 7 6 6 6 6 7 7 9 11 11 11 10 9
6 6 7 7 8 8 9 10 11 12 13 13 14 15 15 15 15 16 17 19 20 21 22 23 23 23 23 24 24 23 22 20 19 18 17 17 17 17 17 17 16 15 14 12 11 9 7 7 6 6 7 7 8 8 8 6 4 3 2 2 2 3 2 3 5 7 8 11 12 12 11 10 8 6 5 5 5 6 7 9 11 11 10 9 9
6 6 7 7 8 8 9 10 11 12 12 13 14 15 15 15 15 16 17 18 20 21 21 22 22 22 23 23 23 22 21 20 19 17 16 15 15 15 15 15 15 14 15 15 13 12 10 9 8 7 7 7 8 8 8 7 5 5 4 3 3 3 2 3 5 6 7 10 11 10 9 10 9 7 5 4 4 5 6 8 10 10 9 9 8
6 6 7 7 8 8 9 10 11 11 12 12 13 14 14 15 14 15 16 17 19 20 21 21 22 22 22 23 23 22 21 20 19 18 16 15 15 15 15 14 14 14 15 17 16 15 14 13 11 10 8 7 7 7 7 7 7 7 7 6 5 5 4 5 6 7 8 9 10 9 8 8 9 8 6 5 4 5 6 7 8 10 9 9 9
6 6 7 7 8 8 9 10 10 11 11 11 12 13 14 14 13 14 15 16 17 18 20 21 21 21 22 23 23 22 21 20 18 18 17 17 16 17 17 16 15 16 19 20 20 18 17 15 14 12 11 10 9 7 6 6 6 7 7 7 7 7 7 7 7 8 8 8 8 8 7 7 8 8 6 5 4 5 6 6 8 9 9 9 9
6 6 7 8 8 9 9 9 10 10 10 11 12 13 13 13 13 13 13 14 15 17 18 19 19 20 21 22 22 22 20 19 18 18 18 18 18 18 18 18 18 20 22 22 21 19 18 17 16 16 15 14 13 11 9 7 7 7 7 7 7 7 7 8 8 7 6 5 5 7 8 8 8 7 6 6 4 4 5 6 7 8 9 9 9
7 7 7 8 8 9 9 9 10 10 10 10 11 12 13 13 12 12 12 13 14 15 16 17 18 19 19 20 20 20 19 19 19 19 19 19 18 18 19 19 20 22 23 22 21 20 19 18 17 16 16 15 15 13 12 11 9 7 7 6 6 6 7 8 8 8 6 4 4 6 8 8 8 7 6 6 5 3 4 5 6 7 8 8 8
7 7 8 8 8 8 9 9 9 9 9 9 10 11 12 12 12 11 11 12 13 13 14 15 16 17 18 18 18 19 19 19 19 19 19 19 18 18 19 20 22 22 22 21 21 19 17 16 15 16 16 16 16 15 15 14 14 12 10 9 8 8 8 8 9 9 8 6 5 5 7 8 8 8 7 6 5 4 3 3 4 5 6 7 6
7 7 8 8 8 8 9 9 9 9 9 9 9 11 12 12 12 11 11 11 12 12 12 13 15 15 16 16 17 18 18 19 19 18 18 18 18 19 20 21 22 22 21 20 19 17 15 15 15 16 16 16 17 17 17 18 17 16 15 14 12 10 9 9 9 10 10 9 7 6 6 7 8 8 7 6 6 4 3 3 3 3 4 5 5
7 7 7 8 8 8 9 9 9 9 9 8 8 10 11 12 11 11 10 11 11 11 11 12 13 14 14 15 16 17 18 18 18 18 18 17 18 19 20 21 21 20 19 18 16 15 15 15 16 16 17 17 18 19 19 19 19 19 18 17 15 14 12 11 10 10 10 11 10 9 7 6 7 7 7 6 6 5 4 4 3 2 2 3 3
6 7 7 7 7 8 9 9 9 9 8 8 8 9 10 11 11 10 10 10 10 10 10 10 11 12 13 14 15 16 17 17 17 17 17 17 19 20 20 19 19 18 17 16 15 15 15 16 16 17 18 18 19 19 19 19 19 19 19 18 18 17 16 14 13 11 10 10 10 10 9 7 6 6 6 6 6 5 4 4 3 2 2 1 1
5 6 6 7 7 8 9 9 9 9 8 8 7 8 9 10 10 10 9 9 10 10 9 10 10 11 12 13 14 15 16 16 17 17 17 18 19 19 17 17 17 16 15 14 14 15 16 16 17 18 18 18 19 19 19 19 19 19 19 19 18 18 17 16 15 14 12 10 9 9 10 10 8 7 6 6 5 5 4 3 3 2 1 2 2
5 5 6 7 7 8 9 9 9 9 9 8 8 8 8 9 9 9 9 9 9 9 9 9 9 10 11 12 12 13 14 15 15 16 17 18 18 17 16 16 16 14 13 13 13 14 15 16 17 17 18 18 18 18 18 18 18 18 18 18 18 18 17 17 16 15 14 13 10 9 9 10 11 10 8 6 5 4 4 3 3 2 1 2 2
5 6 7 7 8 8 9 9 10 10 10 9 8 8 8 8 9 9 9 9 9 9 9 8 9 9 10 10 11 12 13 14 14 14 15 16 16 16 16 15 14 13 13 13 14 14 15 16 17 17 18 18 18 18 18 18 18 18 18 18 17 17 17 16 16 16 15 14 13 11 9 8 9 10 10 9 7 5 3 3 3 2 1 1 2
7 8 8 9 9 9 10 10 10 10 10 10 9 9 9 9 9 9 9 9 9 9 9 8 8 8 9 9 10 10 11 12 12 13 14 15 15 15 15 15 14 14 14 14 14 15 15 16 16 17 17 18 18 19 19 19 18 18 18 17 17 17 17 16 16 16 15 14 14 13 11 8 7 8 9 10 10 8 5 4 4 5 3 2 2
10 10 10 10 11 11 11 11 11 11 11 11 10 10 10 9 9 9 9 9 9 8 8 8 8 8 8 8 8 9 9 10 11 12 12 13 14 14 15 15 15 15 15 15 15 15 15 15 16 16 17 17 18 18 19 19 19 19 19 18 18 18 17 16 15 15 14 13 13 12 11 10 9 8 8 8 9 9 8 7 6 6 6 5 4
13 13 13 13 13 13 13 12 12 12 12 12 11 11 10 10 10 10 9 9 9 8 8 8 8 7 7 7 7 7 7 8 9 10 11 11 12 13 14 15 15 15 15 15 15 15 15 15 15 16 16 16 17 18 18 18 19 19 19 19 18 18 17 16 15 14 14 13 12 12 11 10 10 9 8 8 7 7 8 8 8 8 7 6 5
16 15 15 15 15 15 15 14 14 14 13 13 12 12 11 11 11 11 10 10 9 9 8 8 8 7 6 6 6 6 6 6 7 8 9 10 10 11 12 13 14 15 15 15 15 15 15 15 15 15 15 15 16 17 17 18 18 19 19 18 18 17 17 16 16 15 14 14 13 12 11 10 10 9 9 8 8 7 7 7 8 8 9 9 7
17 17 17 17 17 17 16 16 16 16 15 14 14 13 13 13 12 12 11 11 10 10 9 9 8 8 7 6 5 6 6 6 6 6 7 8 9 10 10 11 13 14 15 15 15 15 15 15 15 15 15 15 15 16 16 17 18 18 18 18 18 18 17 17 16 15 15 14 14 13 12 11 10 9 9 8 8 8 7 7 7 7 8 9 9
18 18 18 18 18 18 18 18 18 17 16 15 15 15 15 14 14 13 12 12 12 11 10 10 9 8 7 6 6 6 6 6 6 6 6 7 7 8 9 10 11 12 14 15 15 15 15 15 15 14 15 15 15 15 15 16 17 17 18 18 18 18 18 17 17 16 15 15 14 14 13 12 11 10 10 9 8 8 8 7 7 7 7 8 9
19 19 19 19 19 18 19 20 19 18 17 17 17 17 16 15 15 14 13 13 13 13 12 11 10 9 8 7 7 6 6 7 7 6 6 7 7 8 9 9 10 11 12 14 15 15 16 15 15 14 14 14 14 14 15 15 16 17 17 18 18 18 18 18 17 17 16 15 15 14 14 13 13 12 11 10 9 9 8 8 8 7 7 7 8
21 21 21 21 21 20 20 20 20 19 19 18 18 18 16 15 15 15 15 14 14 14 13 12 11 10 9 8 8 7 7 7 7 7 7 7 8 8 9 10 10 11 12 13 14 15 16 16 16 15 14 14 14 14 14 15 15 16 17 18 18 18 18 18 17 17 16 16 15 15 14 14 13 13 12 11 10 10 9 9 9 9 8 8 8
24 24 24 24 24 23 22 20 20 21 21 20 19 17 16 16 16 16 16 16 15 14 14 14 13 12 11 10 9 9 8 8 9 8 8 8 9 9 10 10 11 11 12 12 13 15 16 16 17 16 15 15 14 15 14 15 15 16 17 18 18 18 18 18 18 17 17 16 15 15 14 14 13 13 13 12 11 10 10 9 9 9 9 9 9
27 27 26 26 27 26 24 21 21 21 21 20 19 18 18 18 18 18 18 17 16 15 15 15 14 13 13 12 11 10 10 10 9 9 9 9 9 10 11 11 11 12 12 13 13 14 15 16 17 17 16 15 15 15 15 15 15 16 17 17 18 19 19 19 18 18 17 16 16 15 14 14 13 14 13 13 12 11 10 10 10 10 10 10 10
29 29 29 29 29 28 25 23 22 22 21 21 20 19 20 20 21 20 20 19 18 17 17 17 16 15 14 13 13 12 11 11 10 10 10 10 10 11 12 12 12 12 12 13 13 14 15 16 16 17 17 16 15 15 15 15 15 15 16 17 18 19 19 19 19 18 17 16 16 15 15 14 14 14 14 13 13 12 11 11 10 10 10 11 11
30 31 31 31 30 29 26 24 24 23 23 22 21 21 21 22 22 22 22 21 20 19 19 18 18 17 16 15 14 13 12 12 12 11 11 11 11 12 12 13 13 12 12 13 13 14 14 15 16 16 16 16 15 15 15 15 15 15 16 16 17 18 18 18 18 18 17 17 16 15 15 14 14 14 14 14 13 13 12 11 11 11 11 11 11
30 31 31 32 31 29 26 26 27 27 26 24 23 22 22 22 22 23 24 23 22 21 20 20 20 19 18 16 15 14 13 13 13 13 13 12 12 12 13 13 13 12 12 12 13 13 14 14 15 15 16 16 15 15 15 15 15 15 15 16 17 17 18 18 18 17 17 17 16 16 15 15 15 15 15 15 14 13 13 12 12 11 11 11 11
30 31 31 31 31 29 28 29 29 29 28 27 24 23 22 22 22 23 24 25 23 23 22 23 22 20 19 18 17 15 14 14 14 14 14 14 13 12 13 13 13 13 12 12 12 13 13 14 14 15 15 15 15 15 15 15 15 15 15 16 17 17 17 18 17 17 17 17 17 16 16 16 16 16 16 16 16 15 14 13 13 12 12 12 12
27 28 28 29 29 28 28 28 28 27 28 28 26 24 22 22 22 23 24 25 26 25 25 24 24 23 21 20 18 17 16 16 16 15 15 15 14 13 13 14 14 13 12 12 12 13 13 13 14 14 14 15 15 15 15 15 15 15 15 16 17 17 17 17 17 17 17 17 17 16 16 16 16 17 17 17 17 16 15 14 14 13 13 13 13
Wind_Direction
10 10 10 10 9 10 12 13 13 13 13 12 12 14 16 16 15 15 14 15 18 21 21 22 24 28 32 34 36 38 39 38 40 42 42 43 44 44 44 44 45 48 49 49 51 55 59 61 64 73 79 87 99 94 93 103 101 91 91 102 108 105 117 143 146 133 124 118 118 120 122 123 121 118 118 120 115 98 82 69 54 41 29 17 9
9 9 10 11 10 10 13 13 14 14 13 13 13 14 16 17 16 15 15 16 19 22 23 24 25 28 32 35 36 37 39 39 42 44 43 45 48 47 47 46 45 47 50 51 52 54 58 63 65 70 77 83 89 88 88 92 91 89 93 95 99 107 111 116 123 121 115 114 119 122 124 122 116 114 114 106 95 84 73 60 46 35 23 14 11
8 9 10 11 10 11 13 14 14 14 13 13 13 14 16 17 17 16 17 18 20 23 25 25 26 29 33 36 36 36 38 39 42 44 43 47 53 51 48 48 46 45 48 50 53 55 59 64 66 69 76 81 84 85 85 88 89 93 97 98 101 103 101 101 105 108 111 118 120 116 114 112 109 105 100 92 85 76 65 52 41 30 20 16 10
7 9 11 12 11 12 13 14 15 15 14 14 15 14 16 18 17 17 18 20 22 24 26 27 28 30 34 38 37 36 36 38 41 44 45 48 54 53 49 48 48 47 47 49 52 55 59 63 65 67 71 75 79 81 83 86 89 92 94 96 98 97 95 95 100 106 111 115 113 109 104 102 103 102 95 86 76 69 60 48 37 28 22 18 8
7 9 12 12 11 12 12 13 15 15 14 15 15 15 17 18 19 19 20 22 24 25 28 29 30 31 35 39 40 37 35 35 39 44 47 48 51 52 49 48 49 48 48 48 50 54 58 63 66 66 67 68 70 73 75 77 80 85 89 91 91 91 93 96 99 103 105 103 101 101 99 97 95 93 89 81 72 66 57 46 36 27 23 17 5
6 9 12 12 12 12 11 13 15 14 14 15 15 16 18 19 20 20 21 23 25 26 28 30 31 31 34 38 40 38 35 33 35 42 48 49 49 49 49 48 48 48 49 49 50 53 56 61 65 67 67 68 68 69 71 74 77 81 84 86 88 90 92 94 96 97 96 96 94 92 91 89 82 77 77 76 72 62 48 37 31 26 20 14 7
5 8 11 12 12 11 11 13 15 14 14 14 14 16 18 20 21 22 23 23 25 28 29 31 32 33 34 37 40 39 36 33 34 39 48 51 51 50 49 47 46 47 50 50 50 52 55 59 62 65 68 70 71 71 72 75 78 81 83 86 91 91 88 88 91 92 91 90 88 84 79 75 70 67 68 67 60 50 43 32 26 23 17 12 14
5 6 9 11 11 10 10 13 14 13 14 14 14 15 18 20 22 24 25 25 26 28 30 31 33 34 35 39 42 41 37 34 34 38 46 51 52 53 53 50 46 46 50 53 53 53 54 57 61 65 69 73 76 76 76 77 78 79 79 79 82 83 79 74 73 73 74 73 73 73 70 67 65 62 62 63 51 43 42 33 23 19 16 18 24
3 4 7 10 10 9 11 12 13 13 13 12 12 14 18 21 22 24 26 27 28 29 31 32 33 34 35 38 42 43 41 39 38 38 43 48 50 54 58 55 50 47 49 54 56 55 55 56 59 63 67 71 75 78 78 78 79 77 73 68 67 68 67 63 62 64 66 65 62 63 65 64 61 57 53 52 46 39 34 27 20 13 14 24 32
2 2 5 8 9 9 10 12 13 12 11 11 11 14 18 21 23 25 27 29 30 31 32 33 34 35 37 39 41 42 40 41 42 39 38 42 45 50 57 58 55 51 50 52 55 56 56 56 57 61 64 66 70 74 77 79 79 80 79 76 74 70 66 62 59 59 62 63 58 52 52 52 51 51 45 41 44 38 25 22 20 11 14 27 33
0 360 3 6 7 8 9 12 12 12 10 9 10 13 17 20 22 25 28 30 31 32 33 34 35 35 37 39 41 42 40 40 43 41 37 38 39 42 50 55 56 54 52 51 52 54 57 59 59 61 63 64 65 67 72 75 77 78 80 84 85 82 78 71 62 54 52 54 54 49 45 44 44 44 42 41 42 34 23 23 18 12 19 27 32
359 358 1 4 5 6 8 11 12 11 9 8 10 13 16 18 21 24 27 30 32 33 34 34 35 36 37 39 40 40 40 40 42 42 40 39 38 38 43 48 50 54 54 51 50 50 54 59 62 61 62 63 63 63 64 66 67 66 67 71 76 80 84 81 73 63 57 57 59 57 51 47 44 42 41 42 36 27 26 25 15 13 22 29 34
357 357 359 2 3 5 7 10 11 10 8 8 10 13 15 16 19 22 27 30 32 33 33 33 34 35 37 39 40 39 39 41 43 42 42 44 41 38 41 44 43 48 52 53 52 49 46 50 56 61 63 60 59 59 58 59 60 59 54 53 56 62 70 75 73 69 64 60 60 60 58 56 54 47 42 44 40 29 27 25 16 16 24 30 36
355 356 358 1 1 3 7 10 10 9 8 9 11 13 14 15 17 21 25 29 32 34 34 33 33 34 36 38 40 40 40 41 43 42 42 46 45 41 42 43 43 44 47 53 56 53 47 44 46 58 66 63 60 60 57 55 57 56 48 42 42 43 46 51 54 53 54 55 55 54 54 55 59 55 47 47 46 36 30 26 19 20 26 31 38
353 355 358 358 358 1 6 9 9 8 8 10 12 14 14 14 16 19 23 27 31 33 34 34 34 34 35 37 39 40 40 40 42 42 41 44 44 44 44 43 41 42 43 49 55 55 52 48 44 48 57 66 72 72 64 56 52 50 43 36 34 32 29 32 38 38 41 47 51 55 56 55 60 61 53 47 43 35 30 27 23 26 31 34 40
350 354 356 355 356 1 6 8 8 7 8 11 13 14 14 14 15 18 22 25 29 31 33 34 34 34 35 35 36 38 40 41 42 41 42 43 42 41 43 43 41 40 39 41 48 52 54 55 52 44 42 56 71 73 70 64 54 46 40 30 27 26 22 25 32 34 36 42 47 57 63 59 60 62 56 49 42 33 30 29 26 29 33 33 39
349 353 353 351 355 0 5 8 8 7 9 12 14 15 14 15 16 18 22 25 28 29 31 33 33 33 35 36 35 35 37 39 42 42 43 45 45 40 40 40 38 37 37 36 38 44 48 51 54 50 39 40 50 56 63 64 55 47 35 17 17 23 21 22 26 28 33 38 40 47 56 58 59 63 59 52 43 34 33 32 28 31 37 36 42
348 351 349 349 354 359 5 8 7 8 10 13 14 15 15 15 17 19 22 25 27 29 30 32 32 32 33 35 36 35 35 36 39 42 43 46 49 46 43 41 35 31 34 35 34 35 36 35 38 40 38 40 43 51 60 59 47 36 18 2 5 14 17 20 24 24 25 27 27 33 47 58 65 68 66 58 46 35 36 37 31 31 38 41 49
345 346 345 347 353 359 4 7 8 9 12 13 14 15 15 16 18 20 22 26 28 30 31 31 31 31 32 33 34 35 35 36 37 38 39 43 46 46 44 41 34 29 31 31 30 30 30 28 26 26 28 36 42 50 60 56 42 32 14 358 360 10 18 24 26 23 19 18 20 25 39 57 70 74 71 64 51 39 37 41 35 29 35 43 53
341 340 342 347 353 359 3 6 8 10 12 14 14 15 15 16 19 21 23 27 30 32 32 31 31 31 32 32 32 32 33 35 38 38 38 40 44 44 42 40 35 32 34 32 28 26 24 20 19 19 20 26 31 37 45 42 32 22 3 354 1 13 23 28 24 15 9 12 16 19 26 42 60 69 67 63 56 46 42 45 41 33 35 43 51
333 333 340 347 352 358 2 5 7 10 12 13 13 14 15 17 20 22 24 29 32 32 32 32 31 32 32 32 32 31 30 31 34 38 39 42 46 47 46 44 40 37 38 35 28 24 20 14 11 12 15 20 24 29 35 36 32 24 7 359 351 350 9 25 20 4 357 4 11 11 12 19 33 51 60 61 58 52 48 51 49 41 39 44 49
326 330 339 346 351 356 1 4 6 8 10 11 12 14 14 16 19 22 25 30 32 33 32 32 32 32 33 33 33 32 32 30 29 31 35 42 47 51 51 50 46 42 41 38 30 23 20 16 14 13 13 18 25 30 33 35 34 31 18 333 313 329 357 17 10 352 348 358 4 2 0 4 14 31 49 59 57 52 51 56 55 47 42 45 49
320 329 337 343 349 354 359 3 6 6 7 9 11 11 12 15 18 21 25 30 32 33 32 31 32 32 33 34 34 33 35 34 32 29 30 35 41 47 50 52 50 47 46 43 37 32 28 25 25 26 26 28 33 34 33 32 27 22 8 330 331 348 4 3 347 342 344 350 356 355 353 359 8 17 34 50 55 52 53 58 58 50 43 44 49
316 328 334 340 346 352 359 4 4 4 5 7 9 9 10 12 15 19 24 28 30 32 32 31 31 32 33 34 34 34 35 37 38 36 34 34 38 42 47 50 50 51 51 50 45 43 43 39 38 40 42 43 43 40 37 36 30 25 20 7 4 12 5 336 332 336 337 342 349 353 354 359 6 14 29 45 55 58 59 62 62 54 44 43 48
315 325 329 336 344 350 358 3 4 4 6 7 9 9 9 9 12 16 21 25 27 29 30 29 29 31 32 34 34 34 35 37 39 42 44 45 47 50 53 53 53 54 55 55 52 49 49 49 46 46 46 43 41 40 38 37 36 34 32 24 17 10 346 325 328 331 331 338 349 357 360 1 6 14 28 47 66 72 67 67 68 62 50 45 49
313 322 326 334 342 350 357 2 4 5 6 8 9 9 8 8 10 14 19 22 23 25 26 26 27 28 31 33 34 34 35 36 38 42 46 50 56 61 63 64 66 68 66 63 58 53 50 47 45 44 44 41 38 36 32 29 26 26 23 15 6 356 344 334 330 329 332 340 351 3 9 9 12 19 25 38 65 80 74 71 74 69 56 48 49
312 320 325 332 342 349 356 1 3 4 5 7 8 8 7 6 8 13 17 19 20 22 23 24 24 25 29 31 32 33 33 35 38 41 45 48 53 57 61 64 68 70 67 63 58 55 52 50 48 48 47 46 42 34 26 18 10 7 6 359 354 352 350 346 337 329 328 336 353 13 25 23 22 26 29 32 49 76 78 74 77 76 67 53 47
312 319 324 333 343 349 353 358 1 2 3 6 7 7 5 3 6 11 15 17 18 20 21 22 21 23 27 29 30 31 32 34 37 40 43 45 48 52 55 57 59 61 60 57 54 52 50 47 46 46 46 45 43 38 31 21 6 354 349 347 349 354 357 356 353 348 339 337 1 27 39 40 35 35 37 39 41 62 80 80 80 81 76 62 48
312 319 324 333 342 346 349 354 358 359 1 3 4 4 3 2 4 7 11 15 17 18 20 20 19 21 25 27 28 29 30 31 34 37 41 43 46 50 53 54 56 56 55 53 50 48 45 42 41 44 46 46 46 45 42 38 29 18 8 4 6 10 9 7 8 10 6 356 12 37 45 46 45 47 50 53 47 48 71 83 83 82 80 73 60
312 318 324 331 339 343 345 350 353 355 357 359 359 0 0 360 1 4 7 11 13 15 17 18 17 19 22 24 26 27 27 28 31 35 39 42 45 48 50 51 53 53 52 50 48 46 44 43 44 47 49 50 50 51 51 49 46 41 35 31 29 26 22 19 19 22 22 16 16 40 50 48 48 50 55 61 60 50 53 72 82 84 83 81 75
311 317 322 328 335 339 340 344 348 350 351 353 354 356 357 357 357 359 2 5 8 11 14 15 16 18 18 20 23 25 26 28 31 36 39 42 44 47 48 49 50 50 50 49 47 46 46 47 49 51 52 52 52 52 52 51 49 47 44 40 38 37 38 38 33 31 32 30 27 36 49 52 53 53 54 59 63 61 56 53 64 76 81 85 84
309 314 320 326 331 334 337 340 342 344 346 346 347 351 354 354 354 354 357 359 2 5 8 11 14 16 16 18 22 24 26 28 32 37 41 43 46 48 48 48 49 49 48 48 48 49 50 51 52 53 53 53 52 50 49 48 47 46 45 42 42 42 44 47 44 38 37 38 38 38 43 52 57 55 52 54 57 62 63 55 48 51 59 77 88
304 311 317 323 326 329 333 336 337 338 339 338 338 344 349 351 350 349 350 352 354 357 1 5 9 13 14 17 21 25 27 29 33 38 41 44 48 49 48 47 48 48 48 48 50 52 54 54 54 53 53 52 51 49 48 46 45 44 43 42 41 41 42 43 43 42 41 40 40 40 39 44 53 53 49 46 47 53 60 58 55 45 19 23 41
299 308 313 318 321 323 328 331 332 332 331 328 329 333 339 344 346 343 342 344 346 350 354 358 3 9 13 17 22 26 27 29 32 36 40 44 49 51 50 50 51 50 49 49 51 54 55 55 55 54 53 51 50 48 46 44 42 41 40 39 38 39 40 40 41 42 43 43 41 39 37 38 41 44 41 37 36 40 48 53 59 55 8 339 335
287 298 302 307 311 314 319 324 326 325 323 320 318 320 327 335 339 338 336 336 338 343 347 350 356 3 10 15 20 25 27 29 31 34 39 44 48 50 50 51 52 51 52 53 55 56 58 58 57 56 55 53 52 50 47 45 42 39 38 36 35 34 36 38 39 40 41 41 40 40 40 39 38 37 37 35 31 27 26 29 44 62 33 329 318
269 280 286 292 298 303 308 314 317 317 316 314 311 310 315 323 331 333 332 330 331 336 339 342 347 356 4 11 18 24 28 29 30 34 39 43 45 48 50 52 53 53 54 55 56 57 58 59 59 58 58 56 54 52 50 47 44 42 39 36 34 32 30 31 33 36 38 39 38 38 40 41 38 36 37 38 36 27 5 347 347 3 27 341 307
256 265 273 280 286 292 297 302 305 307 308 308 308 307 308 314 322 326 325 322 324 327 330 332 339 348 356 4 14 23 28 28 28 34 40 42 43 45 49 51 52 52 52 53 53 53 54 55 56 56 56 56 55 53 51 49 46 44 41 38 35 33 29 27 26 27 31 35 35 35 35 35 29 24 26 30 34 32 21 350 324 318 322 325 300
253 260 267 272 277 282 288 291 294 297 299 302 303 302 301 303 308 313 315 314 314 317 320 323 329 338 348 354 3 16 25 24 24 30 37 40 40 41 44 46 47 48 49 50 51 50 50 51 52 52 52 52 52 51 50 48 45 43 41 38 35 32 29 26 24 22 23 27 29 31 30 28 23 17 12 12 20 24 22 15 357 333 319 310 295
255 259 263 267 270 275 278 281 284 288 290 294 296 295 293 292 295 300 304 305 304 305 309 312 316 325 336 342 349 2 15 17 16 22 29 33 35 36 37 39 41 41 43 45 46 48 48 48 48 48 47 47 48 47 46 45 44 42 40 37 35 32 29 27 24 22 20 21 23 24 25 23 21 18 12 5 3 4 4 4 4 357 344 328 306
260 263 265 267 269 271 273 275 278 280 282 285 287 286 285 284 285 289 293 296 297 298 299 302 305 310 317 326 334 344 354 359 4 11 17 21 24 28 31 33 35 35 36 37 39 41 43 43 44 44 44 44 44 43 42 41 40 39 37 35 34 32 30 28 25 22 20 19 18 18 18 18 16 13 10 6 0 354 349 345 346 349 349 345 331
264 268 270 270 271 271 272 273 274 274 277 280 282 281 280 278 279 282 287 291 293 293 293 294 295 297 300 308 318 325 329 334 342 354 2 6 10 14 19 24 28 29 30 30 31 32 34 35 36 38 39 39 39 39 38 37 36 34 33 31 30 29 28 27 24 22 19 16 14 13 13 13 11 6 4 2 359 355 352 346 337 333 335 338 338
267 271 274 275 276 274 273 272 272 273 275 279 280 279 277 277 278 281 284 289 291 289 287 286 286 287 288 292 299 307 312 314 318 327 338 347 353 356 1 8 16 21 22 23 23 24 25 27 28 30 32 33 33 34 34 34 32 31 29 27 26 25 24 24 23 21 19 15 12 10 8 7 5 2 358 356 355 353 352 349 341 332 325 324 328
270 274 277 279 280 279 275 273 272 274 275 274 274 275 276 279 282 282 281 284 286 284 281 280 280 279 280 281 285 294 300 300 301 305 310 319 328 335 341 349 357 6 12 14 14 15 17 18 20 23 26 27 27 28 29 30 30 28 25 24 22 21 20 20 20 18 17 14 11 7 4 1 0 359 355 352 350 348 346 344 341 335 328 320 315
272 275 277 279 280 280 277 274 273 273 271 270 271 274 275 278 280 279 275 275 278 279 277 276 275 274 273 274 277 283 288 290 291 292 293 298 307 315 322 330 338 347 356 1 3 5 7 9 11 14 18 20 21 22 23 25 26 25 23 21 19 17 16 16 16 15 15 14 10 6 2 358 355 353 350 348 347 344 341 338 335 331 327 322 314
272 274 275 276 277 278 277 276 274 272 270 271 273 273 272 274 276 274 269 268 271 273 273 271 269 267 268 269 272 276 279 281 284 286 286 288 292 298 305 312 320 329 338 346 352 355 357 359 2 5 8 13 14 15 16 18 21 21 20 18 16 14 13 13 12 12 11 10 8 5 1 357 353 349 346 343 343 342 339 336 332 327 322 319 314
272 273 273 273 273 274 275 276 275 273 272 273 272 270 270 274 276 272 266 264 266 267 267 267 265 263 263 266 269 273 276 277 279 282 284 284 285 288 293 298 305 313 322 330 339 345 348 351 354 356 359 4 7 8 10 12 14 16 17 16 14 12 11 10 9 9 7 5 4 3 1 358 353 349 344 340 338 338 338 336 333 328 322 316 312
271 271 271 270 271 272 273 275 277 276 274 273 271 269 270 274 274 268 262 261 263 263 262 262 261 260 260 263 268 273 276 277 278 280 282 283 283 284 286 289 294 301 310 318 326 333 338 342 346 348 351 355 359 2 4 6 9 11 13 13 12 11 9 7 6 5 2 0 0 1 0 359 355 350 344 340 337 335 334 334 332 329 324 318 313
271 271 271 271 271 271 272 275 277 275 271 270 270 269 268 271 271 266 260 258 259 259 259 258 257 257 259 262 267 272 275 277 278 278 279 280 280 281 282 284 288 293 300 309 316 322 328 334 338 341 344 347 351 355 357 1 4 6 8 9 9 8 7 5 3 1 359 359 359 358 358 359 358 353 346 341 336 334 332 330 329 327 323 319 314
270 270 271 271 271 272 275 278 276 272 270 270 267 263 262 264 263 260 257 257 259 260 258 255 253 254 256 260 266 270 272 275 277 278 279 279 279 280 281 283 285 289 294 300 307 313 320 326 331 335 337 340 344 348 352 355 358 0 2 4 5 4 3 2 0 359 359 358 357 356 356 359 359 355 348 342 337 334 332 330 328 325 321 318 314
271 271 271 272 273 274 275 275 273 272 272 270 264 257 255 255 255 253 254 257 259 259 256 253 252 252 253 257 262 267 269 271 274 276 278 279 279 279 281 283 284 286 289 294 300 306 312 318 323 328 331 335 338 342 346 350 353 354 356 358 359 0 359 358 357 358 358 357 355 354 355 357 358 355 349 343 339 336 333 331 328 324 319 316 311
277 278 278 279 278 275 273 273 273 273 273 270 263 255 252 253 255 258 260 260 259 259 257 254 253 252 252 254 259 264 265 268 271 274 276 277 277 277 279 281 282 282 285 288 293 299 305 311 316 321 325 330 333 336 340 345 348 349 350 353 354 355 355 354 354 355 355 354 353 353 353 355 356 354 349 343 339 337 335 332 329 324 319 315 310